<?xml version="1.0" encoding="utf-8"?>
<gpx xmlns:xsi="http://www.w3.org/2001/XMLSchema-instance" xmlns:xsd="http://www.w3.org/2001/XMLSchema" version="1.1" creator="Shapelink.com" xmlns="http://www.topografix.com/GPX/1/1" xmlns:gpxtpx="http://www.garmin.com/xmlschemas/TrackPointExtension/v1">
  <metadata>
    <name>Längdskidåkning 15.77 km, 2012-12-09</name>
    <desc></desc>
    <author><name>Kim Kronberg</name></author> 
    <time>1970-01-01T01:00:00Z</time>
  </metadata>
  <trk>
    <name>Längdskidåkning 15.77 km, 2012-12-09</name>
    <trkseg>
      <trkpt lat="60.481463" lon="22.261752">
        <ele>24</ele>
        <time>1970-01-01T01:00:00Z</time>
      </trkpt>
      <trkpt lat="60.481557" lon="22.262082">
        <ele>24</ele>
        <time>1970-01-01T01:00:00Z</time>
      </trkpt>
      <trkpt lat="60.481578" lon="22.262257">
        <ele>24</ele>
        <time>1970-01-01T01:00:00Z</time>
      </trkpt>
      <trkpt lat="60.48164" lon="22.262486">
        <ele>24</ele>
        <time>1970-01-01T01:00:00Z</time>
      </trkpt>
      <trkpt lat="60.481759" lon="22.262745">
        <ele>24</ele>
        <time>1970-01-01T01:00:00Z</time>
      </trkpt>
      <trkpt lat="60.481789" lon="22.262803">
        <ele>24</ele>
        <time>1970-01-01T01:00:00Z</time>
      </trkpt>
      <trkpt lat="60.481955" lon="22.263046">
        <ele>24</ele>
        <time>1970-01-01T01:00:00Z</time>
      </trkpt>
      <trkpt lat="60.482089" lon="22.263178">
        <ele>24</ele>
        <time>1970-01-01T01:00:00Z</time>
      </trkpt>
      <trkpt lat="60.48231" lon="22.263439">
        <ele>24</ele>
        <time>1970-01-01T01:00:00Z</time>
      </trkpt>
      <trkpt lat="60.482545" lon="22.263605">
        <ele>24</ele>
        <time>1970-01-01T01:00:00Z</time>
      </trkpt>
      <trkpt lat="60.482593" lon="22.263625">
        <ele>24</ele>
        <time>1970-01-01T01:00:00Z</time>
      </trkpt>
      <trkpt lat="60.482681" lon="22.263668">
        <ele>24.3636</ele>
        <time>1970-01-01T01:00:00Z</time>
      </trkpt>
      <trkpt lat="60.482865" lon="22.263615">
        <ele>24.7273</ele>
        <time>1970-01-01T01:00:00Z</time>
      </trkpt>
      <trkpt lat="60.483021" lon="22.263451">
        <ele>25.0909</ele>
        <time>1970-01-01T01:00:00Z</time>
      </trkpt>
      <trkpt lat="60.483169" lon="22.263308">
        <ele>25.4545</ele>
        <time>1970-01-01T01:00:00Z</time>
      </trkpt>
      <trkpt lat="60.48333" lon="22.26331">
        <ele>25.8182</ele>
        <time>1970-01-01T01:00:00Z</time>
      </trkpt>
      <trkpt lat="60.483527" lon="22.263165">
        <ele>26.1818</ele>
        <time>1970-01-01T01:00:00Z</time>
      </trkpt>
      <trkpt lat="60.483706" lon="22.263003">
        <ele>26.5455</ele>
        <time>1970-01-01T01:00:00Z</time>
      </trkpt>
      <trkpt lat="60.483742" lon="22.262985">
        <ele>26.9091</ele>
        <time>1970-01-01T01:00:00Z</time>
      </trkpt>
      <trkpt lat="60.483888" lon="22.262958">
        <ele>27.2727</ele>
        <time>1970-01-01T01:00:00Z</time>
      </trkpt>
      <trkpt lat="60.484021" lon="22.262969">
        <ele>27.6364</ele>
        <time>1970-01-01T01:00:00Z</time>
      </trkpt>
      <trkpt lat="60.484164" lon="22.262897">
        <ele>28</ele>
        <time>1970-01-01T01:00:00Z</time>
      </trkpt>
      <trkpt lat="60.484275" lon="22.262848">
        <ele>28</ele>
        <time>1970-01-01T01:00:00Z</time>
      </trkpt>
      <trkpt lat="60.484381" lon="22.262825">
        <ele>28</ele>
        <time>1970-01-01T01:00:00Z</time>
      </trkpt>
      <trkpt lat="60.484511" lon="22.262795">
        <ele>28</ele>
        <time>1970-01-01T01:00:00Z</time>
      </trkpt>
      <trkpt lat="60.48466" lon="22.262779">
        <ele>28</ele>
        <time>1970-01-01T01:00:00Z</time>
      </trkpt>
      <trkpt lat="60.48479" lon="22.262791">
        <ele>28</ele>
        <time>1970-01-01T01:00:00Z</time>
      </trkpt>
      <trkpt lat="60.484958" lon="22.262715">
        <ele>28</ele>
        <time>1970-01-01T01:00:00Z</time>
      </trkpt>
      <trkpt lat="60.485035" lon="22.262665">
        <ele>28</ele>
        <time>1970-01-01T01:00:00Z</time>
      </trkpt>
      <trkpt lat="60.485223" lon="22.262514">
        <ele>28</ele>
        <time>1970-01-01T01:00:00Z</time>
      </trkpt>
      <trkpt lat="60.485361" lon="22.262287">
        <ele>28</ele>
        <time>1970-01-01T01:00:00Z</time>
      </trkpt>
      <trkpt lat="60.485379" lon="22.261981">
        <ele>28</ele>
        <time>1970-01-01T01:00:00Z</time>
      </trkpt>
      <trkpt lat="60.485373" lon="22.261819">
        <ele>28</ele>
        <time>1970-01-01T01:00:00Z</time>
      </trkpt>
      <trkpt lat="60.48532" lon="22.261504">
        <ele>28</ele>
        <time>1970-01-01T01:00:00Z</time>
      </trkpt>
      <trkpt lat="60.48528" lon="22.261084">
        <ele>28</ele>
        <time>1970-01-01T01:00:00Z</time>
      </trkpt>
      <trkpt lat="60.485258" lon="22.260861">
        <ele>28</ele>
        <time>1970-01-01T01:00:00Z</time>
      </trkpt>
      <trkpt lat="60.485232" lon="22.260585">
        <ele>28</ele>
        <time>1970-01-01T01:00:00Z</time>
      </trkpt>
      <trkpt lat="60.485228" lon="22.260473">
        <ele>28</ele>
        <time>1970-01-01T01:00:00Z</time>
      </trkpt>
      <trkpt lat="60.485192" lon="22.260302">
        <ele>28</ele>
        <time>1970-01-01T01:00:00Z</time>
      </trkpt>
      <trkpt lat="60.485188" lon="22.259942">
        <ele>28</ele>
        <time>1970-01-01T01:00:00Z</time>
      </trkpt>
      <trkpt lat="60.485153" lon="22.259739">
        <ele>28</ele>
        <time>1970-01-01T01:00:00Z</time>
      </trkpt>
      <trkpt lat="60.485092" lon="22.25955">
        <ele>28</ele>
        <time>1970-01-01T01:00:00Z</time>
      </trkpt>
      <trkpt lat="60.485041" lon="22.259324">
        <ele>28.4545</ele>
        <time>1970-01-01T01:00:00Z</time>
      </trkpt>
      <trkpt lat="60.485026" lon="22.259066">
        <ele>28.9091</ele>
        <time>1970-01-01T01:00:00Z</time>
      </trkpt>
      <trkpt lat="60.485026" lon="22.258856">
        <ele>29.3636</ele>
        <time>1970-01-01T01:00:00Z</time>
      </trkpt>
      <trkpt lat="60.48504" lon="22.258728">
        <ele>29.8182</ele>
        <time>1970-01-01T01:00:00Z</time>
      </trkpt>
      <trkpt lat="60.485052" lon="22.258444">
        <ele>30.2727</ele>
        <time>1970-01-01T01:00:00Z</time>
      </trkpt>
      <trkpt lat="60.485049" lon="22.258237">
        <ele>30.7273</ele>
        <time>1970-01-01T01:00:00Z</time>
      </trkpt>
      <trkpt lat="60.485024" lon="22.258064">
        <ele>31.1818</ele>
        <time>1970-01-01T01:00:00Z</time>
      </trkpt>
      <trkpt lat="60.484893" lon="22.257819">
        <ele>31.6364</ele>
        <time>1970-01-01T01:00:00Z</time>
      </trkpt>
      <trkpt lat="60.484802" lon="22.257613">
        <ele>32.0909</ele>
        <time>1970-01-01T01:00:00Z</time>
      </trkpt>
      <trkpt lat="60.484756" lon="22.257398">
        <ele>32.5455</ele>
        <time>1970-01-01T01:00:00Z</time>
      </trkpt>
      <trkpt lat="60.484668" lon="22.256807">
        <ele>33</ele>
        <time>1970-01-01T01:00:00Z</time>
      </trkpt>
      <trkpt lat="60.484627" lon="22.256619">
        <ele>33</ele>
        <time>1970-01-01T01:00:00Z</time>
      </trkpt>
      <trkpt lat="60.484561" lon="22.256274">
        <ele>33</ele>
        <time>1970-01-01T01:00:00Z</time>
      </trkpt>
      <trkpt lat="60.484238" lon="22.255654">
        <ele>33</ele>
        <time>1970-01-01T01:00:00Z</time>
      </trkpt>
      <trkpt lat="60.483976" lon="22.255223">
        <ele>33</ele>
        <time>1970-01-01T01:00:00Z</time>
      </trkpt>
      <trkpt lat="60.483816" lon="22.25475">
        <ele>32.2727</ele>
        <time>1970-01-01T01:00:00Z</time>
      </trkpt>
      <trkpt lat="60.483753" lon="22.254371">
        <ele>31.5455</ele>
        <time>1970-01-01T01:00:00Z</time>
      </trkpt>
      <trkpt lat="60.483606" lon="22.254063">
        <ele>30.8182</ele>
        <time>1970-01-01T01:00:00Z</time>
      </trkpt>
      <trkpt lat="60.483489" lon="22.254073">
        <ele>30.0909</ele>
        <time>1970-01-01T01:00:00Z</time>
      </trkpt>
      <trkpt lat="60.483389" lon="22.254189">
        <ele>29.3636</ele>
        <time>1970-01-01T01:00:00Z</time>
      </trkpt>
      <trkpt lat="60.483223" lon="22.254456">
        <ele>28.6364</ele>
        <time>1970-01-01T01:00:00Z</time>
      </trkpt>
      <trkpt lat="60.48315" lon="22.254534">
        <ele>27.9091</ele>
        <time>1970-01-01T01:00:00Z</time>
      </trkpt>
      <trkpt lat="60.482982" lon="22.254556">
        <ele>27.1818</ele>
        <time>1970-01-01T01:00:00Z</time>
      </trkpt>
      <trkpt lat="60.482806" lon="22.254597">
        <ele>26.4545</ele>
        <time>1970-01-01T01:00:00Z</time>
      </trkpt>
      <trkpt lat="60.482637" lon="22.254653">
        <ele>25.7273</ele>
        <time>1970-01-01T01:00:00Z</time>
      </trkpt>
      <trkpt lat="60.482519" lon="22.254639">
        <ele>25</ele>
        <time>1970-01-01T01:00:00Z</time>
      </trkpt>
      <trkpt lat="60.482347" lon="22.254613">
        <ele>25</ele>
        <time>1970-01-01T01:00:00Z</time>
      </trkpt>
      <trkpt lat="60.482244" lon="22.254626">
        <ele>25</ele>
        <time>1970-01-01T01:00:00Z</time>
      </trkpt>
      <trkpt lat="60.482144" lon="22.254676">
        <ele>25</ele>
        <time>1970-01-01T01:00:00Z</time>
      </trkpt>
      <trkpt lat="60.482008" lon="22.254694">
        <ele>25</ele>
        <time>1970-01-01T01:00:00Z</time>
      </trkpt>
      <trkpt lat="60.48186" lon="22.254634">
        <ele>25</ele>
        <time>1970-01-01T01:00:00Z</time>
      </trkpt>
      <trkpt lat="60.4817" lon="22.254492">
        <ele>25</ele>
        <time>1970-01-01T01:00:00Z</time>
      </trkpt>
      <trkpt lat="60.481403" lon="22.253905">
        <ele>25</ele>
        <time>1970-01-01T01:00:00Z</time>
      </trkpt>
      <trkpt lat="60.481391" lon="22.253535">
        <ele>25</ele>
        <time>1970-01-01T01:00:00Z</time>
      </trkpt>
      <trkpt lat="60.481474" lon="22.253186">
        <ele>25</ele>
        <time>1970-01-01T01:00:00Z</time>
      </trkpt>
      <trkpt lat="60.481538" lon="22.253058">
        <ele>25</ele>
        <time>1970-01-01T01:00:00Z</time>
      </trkpt>
      <trkpt lat="60.48164" lon="22.252868">
        <ele>25</ele>
        <time>1970-01-01T01:00:00Z</time>
      </trkpt>
      <trkpt lat="60.481744" lon="22.252537">
        <ele>25</ele>
        <time>1970-01-01T01:00:00Z</time>
      </trkpt>
      <trkpt lat="60.481867" lon="22.252428">
        <ele>25</ele>
        <time>1970-01-01T01:00:00Z</time>
      </trkpt>
      <trkpt lat="60.482093" lon="22.252412">
        <ele>25</ele>
        <time>1970-01-01T01:00:00Z</time>
      </trkpt>
      <trkpt lat="60.482309" lon="22.252295">
        <ele>25</ele>
        <time>1970-01-01T01:00:00Z</time>
      </trkpt>
      <trkpt lat="60.482402" lon="22.252205">
        <ele>25</ele>
        <time>1970-01-01T01:00:00Z</time>
      </trkpt>
      <trkpt lat="60.482554" lon="22.252089">
        <ele>25</ele>
        <time>1970-01-01T01:00:00Z</time>
      </trkpt>
      <trkpt lat="60.482616" lon="22.252172">
        <ele>25</ele>
        <time>1970-01-01T01:00:00Z</time>
      </trkpt>
      <trkpt lat="60.482704" lon="22.25235">
        <ele>25.7273</ele>
        <time>1970-01-01T01:00:00Z</time>
      </trkpt>
      <trkpt lat="60.482851" lon="22.252647">
        <ele>26.4545</ele>
        <time>1970-01-01T01:00:00Z</time>
      </trkpt>
      <trkpt lat="60.482959" lon="22.252772">
        <ele>27.1818</ele>
        <time>1970-01-01T01:00:00Z</time>
      </trkpt>
      <trkpt lat="60.483129" lon="22.252741">
        <ele>27.9091</ele>
        <time>1970-01-01T01:00:00Z</time>
      </trkpt>
      <trkpt lat="60.483255" lon="22.252594">
        <ele>28.6364</ele>
        <time>1970-01-01T01:00:00Z</time>
      </trkpt>
      <trkpt lat="60.483396" lon="22.252401">
        <ele>29.3636</ele>
        <time>1970-01-01T01:00:00Z</time>
      </trkpt>
      <trkpt lat="60.483433" lon="22.252359">
        <ele>30.0909</ele>
        <time>1970-01-01T01:00:00Z</time>
      </trkpt>
      <trkpt lat="60.483558" lon="22.252132">
        <ele>30.0909</ele>
        <time>1970-01-01T01:00:00Z</time>
      </trkpt>
      <trkpt lat="60.483584" lon="22.251805">
        <ele>30.0909</ele>
        <time>1970-01-01T01:00:00Z</time>
      </trkpt>
      <trkpt lat="60.483557" lon="22.251628">
        <ele>30.0909</ele>
        <time>1970-01-01T01:00:00Z</time>
      </trkpt>
      <trkpt lat="60.483489" lon="22.251418">
        <ele>30.0909</ele>
        <time>1970-01-01T01:00:00Z</time>
      </trkpt>
      <trkpt lat="60.483344" lon="22.251277">
        <ele>29.3636</ele>
        <time>1970-01-01T01:00:00Z</time>
      </trkpt>
      <trkpt lat="60.483298" lon="22.251279">
        <ele>28.6364</ele>
        <time>1970-01-01T01:00:00Z</time>
      </trkpt>
      <trkpt lat="60.483209" lon="22.251309">
        <ele>27.9091</ele>
        <time>1970-01-01T01:00:00Z</time>
      </trkpt>
      <trkpt lat="60.483124" lon="22.251369">
        <ele>27.1818</ele>
        <time>1970-01-01T01:00:00Z</time>
      </trkpt>
      <trkpt lat="60.48303" lon="22.251475">
        <ele>26.4545</ele>
        <time>1970-01-01T01:00:00Z</time>
      </trkpt>
      <trkpt lat="60.482882" lon="22.251709">
        <ele>25.7273</ele>
        <time>1970-01-01T01:00:00Z</time>
      </trkpt>
      <trkpt lat="60.482788" lon="22.251852">
        <ele>25</ele>
        <time>1970-01-01T01:00:00Z</time>
      </trkpt>
      <trkpt lat="60.482722" lon="22.251945">
        <ele>25</ele>
        <time>1970-01-01T01:00:00Z</time>
      </trkpt>
      <trkpt lat="60.48259" lon="22.252025">
        <ele>25</ele>
        <time>1970-01-01T01:00:00Z</time>
      </trkpt>
      <trkpt lat="60.482487" lon="22.251992">
        <ele>25</ele>
        <time>1970-01-01T01:00:00Z</time>
      </trkpt>
      <trkpt lat="60.482382" lon="22.252078">
        <ele>25</ele>
        <time>1970-01-01T01:00:00Z</time>
      </trkpt>
      <trkpt lat="60.482191" lon="22.252253">
        <ele>25</ele>
        <time>1970-01-01T01:00:00Z</time>
      </trkpt>
      <trkpt lat="60.482111" lon="22.252241">
        <ele>25</ele>
        <time>1970-01-01T01:00:00Z</time>
      </trkpt>
      <trkpt lat="60.481999" lon="22.252058">
        <ele>25</ele>
        <time>1970-01-01T01:00:00Z</time>
      </trkpt>
      <trkpt lat="60.481917" lon="22.251776">
        <ele>25</ele>
        <time>1970-01-01T01:00:00Z</time>
      </trkpt>
      <trkpt lat="60.481891" lon="22.251704">
        <ele>25</ele>
        <time>1970-01-01T01:00:00Z</time>
      </trkpt>
      <trkpt lat="60.481822" lon="22.251486">
        <ele>25</ele>
        <time>1970-01-01T01:00:00Z</time>
      </trkpt>
      <trkpt lat="60.481735" lon="22.251358">
        <ele>25</ele>
        <time>1970-01-01T01:00:00Z</time>
      </trkpt>
      <trkpt lat="60.481644" lon="22.251363">
        <ele>25</ele>
        <time>1970-01-01T01:00:00Z</time>
      </trkpt>
      <trkpt lat="60.481455" lon="22.251504">
        <ele>25</ele>
        <time>1970-01-01T01:00:00Z</time>
      </trkpt>
      <trkpt lat="60.481346" lon="22.251632">
        <ele>25</ele>
        <time>1970-01-01T01:00:00Z</time>
      </trkpt>
      <trkpt lat="60.481224" lon="22.251735">
        <ele>25</ele>
        <time>1970-01-01T01:00:00Z</time>
      </trkpt>
      <trkpt lat="60.481058" lon="22.251864">
        <ele>25</ele>
        <time>1970-01-01T01:00:00Z</time>
      </trkpt>
      <trkpt lat="60.480965" lon="22.251929">
        <ele>25</ele>
        <time>1970-01-01T01:00:00Z</time>
      </trkpt>
      <trkpt lat="60.480883" lon="22.252016">
        <ele>25</ele>
        <time>1970-01-01T01:00:00Z</time>
      </trkpt>
      <trkpt lat="60.480737" lon="22.252131">
        <ele>25</ele>
        <time>1970-01-01T01:00:00Z</time>
      </trkpt>
      <trkpt lat="60.480545" lon="22.252297">
        <ele>25</ele>
        <time>1970-01-01T01:00:00Z</time>
      </trkpt>
      <trkpt lat="60.480503" lon="22.252338">
        <ele>25</ele>
        <time>1970-01-01T01:00:00Z</time>
      </trkpt>
      <trkpt lat="60.480369" lon="22.252489">
        <ele>25</ele>
        <time>1970-01-01T01:00:00Z</time>
      </trkpt>
      <trkpt lat="60.480204" lon="22.252698">
        <ele>25</ele>
        <time>1970-01-01T01:00:00Z</time>
      </trkpt>
      <trkpt lat="60.480078" lon="22.252864">
        <ele>25</ele>
        <time>1970-01-01T01:00:00Z</time>
      </trkpt>
      <trkpt lat="60.479953" lon="22.253068">
        <ele>25</ele>
        <time>1970-01-01T01:00:00Z</time>
      </trkpt>
      <trkpt lat="60.479978" lon="22.253351">
        <ele>25</ele>
        <time>1970-01-01T01:00:00Z</time>
      </trkpt>
      <trkpt lat="60.480061" lon="22.253516">
        <ele>25</ele>
        <time>1970-01-01T01:00:00Z</time>
      </trkpt>
      <trkpt lat="60.480168" lon="22.25358">
        <ele>25</ele>
        <time>1970-01-01T01:00:00Z</time>
      </trkpt>
      <trkpt lat="60.480287" lon="22.253541">
        <ele>25</ele>
        <time>1970-01-01T01:00:00Z</time>
      </trkpt>
      <trkpt lat="60.480411" lon="22.253425">
        <ele>25</ele>
        <time>1970-01-01T01:00:00Z</time>
      </trkpt>
      <trkpt lat="60.480504" lon="22.253357">
        <ele>25</ele>
        <time>1970-01-01T01:00:00Z</time>
      </trkpt>
      <trkpt lat="60.480595" lon="22.253279">
        <ele>25</ele>
        <time>1970-01-01T01:00:00Z</time>
      </trkpt>
      <trkpt lat="60.480641" lon="22.253224">
        <ele>25</ele>
        <time>1970-01-01T01:00:00Z</time>
      </trkpt>
      <trkpt lat="60.480774" lon="22.253242">
        <ele>25</ele>
        <time>1970-01-01T01:00:00Z</time>
      </trkpt>
      <trkpt lat="60.480908" lon="22.253392">
        <ele>25</ele>
        <time>1970-01-01T01:00:00Z</time>
      </trkpt>
      <trkpt lat="60.480996" lon="22.253467">
        <ele>25</ele>
        <time>1970-01-01T01:00:00Z</time>
      </trkpt>
      <trkpt lat="60.481064" lon="22.253539">
        <ele>25</ele>
        <time>1970-01-01T01:00:00Z</time>
      </trkpt>
      <trkpt lat="60.481176" lon="22.253652">
        <ele>25</ele>
        <time>1970-01-01T01:00:00Z</time>
      </trkpt>
      <trkpt lat="60.481262" lon="22.253784">
        <ele>25</ele>
        <time>1970-01-01T01:00:00Z</time>
      </trkpt>
      <trkpt lat="60.481345" lon="22.253938">
        <ele>25</ele>
        <time>1970-01-01T01:00:00Z</time>
      </trkpt>
      <trkpt lat="60.481387" lon="22.254003">
        <ele>25</ele>
        <time>1970-01-01T01:00:00Z</time>
      </trkpt>
      <trkpt lat="60.481462" lon="22.254152">
        <ele>25</ele>
        <time>1970-01-01T01:00:00Z</time>
      </trkpt>
      <trkpt lat="60.481517" lon="22.254277">
        <ele>25</ele>
        <time>1970-01-01T01:00:00Z</time>
      </trkpt>
      <trkpt lat="60.481496" lon="22.25457">
        <ele>25</ele>
        <time>1970-01-01T01:00:00Z</time>
      </trkpt>
      <trkpt lat="60.481435" lon="22.25467">
        <ele>25</ele>
        <time>1970-01-01T01:00:00Z</time>
      </trkpt>
      <trkpt lat="60.481265" lon="22.254829">
        <ele>25</ele>
        <time>1970-01-01T01:00:00Z</time>
      </trkpt>
      <trkpt lat="60.481146" lon="22.255001">
        <ele>25</ele>
        <time>1970-01-01T01:00:00Z</time>
      </trkpt>
      <trkpt lat="60.481051" lon="22.255112">
        <ele>25</ele>
        <time>1970-01-01T01:00:00Z</time>
      </trkpt>
      <trkpt lat="60.480954" lon="22.25519">
        <ele>25</ele>
        <time>1970-01-01T01:00:00Z</time>
      </trkpt>
      <trkpt lat="60.480877" lon="22.255228">
        <ele>25</ele>
        <time>1970-01-01T01:00:00Z</time>
      </trkpt>
      <trkpt lat="60.480781" lon="22.255302">
        <ele>25</ele>
        <time>1970-01-01T01:00:00Z</time>
      </trkpt>
      <trkpt lat="60.480754" lon="22.255386">
        <ele>25</ele>
        <time>1970-01-01T01:00:00Z</time>
      </trkpt>
      <trkpt lat="60.480742" lon="22.255463">
        <ele>25</ele>
        <time>1970-01-01T01:00:00Z</time>
      </trkpt>
      <trkpt lat="60.480727" lon="22.255666">
        <ele>25</ele>
        <time>1970-01-01T01:00:00Z</time>
      </trkpt>
      <trkpt lat="60.480761" lon="22.255832">
        <ele>25</ele>
        <time>1970-01-01T01:00:00Z</time>
      </trkpt>
      <trkpt lat="60.480799" lon="22.255961">
        <ele>25</ele>
        <time>1970-01-01T01:00:00Z</time>
      </trkpt>
      <trkpt lat="60.480843" lon="22.256035">
        <ele>25</ele>
        <time>1970-01-01T01:00:00Z</time>
      </trkpt>
      <trkpt lat="60.480895" lon="22.256156">
        <ele>25</ele>
        <time>1970-01-01T01:00:00Z</time>
      </trkpt>
      <trkpt lat="60.480962" lon="22.256228">
        <ele>25</ele>
        <time>1970-01-01T01:00:00Z</time>
      </trkpt>
      <trkpt lat="60.481048" lon="22.256309">
        <ele>25</ele>
        <time>1970-01-01T01:00:00Z</time>
      </trkpt>
      <trkpt lat="60.48111" lon="22.256436">
        <ele>25</ele>
        <time>1970-01-01T01:00:00Z</time>
      </trkpt>
      <trkpt lat="60.481176" lon="22.256607">
        <ele>25</ele>
        <time>1970-01-01T01:00:00Z</time>
      </trkpt>
      <trkpt lat="60.481184" lon="22.256651">
        <ele>25</ele>
        <time>1970-01-01T01:00:00Z</time>
      </trkpt>
      <trkpt lat="60.481232" lon="22.256892">
        <ele>25</ele>
        <time>1970-01-01T01:00:00Z</time>
      </trkpt>
      <trkpt lat="60.481226" lon="22.257079">
        <ele>25</ele>
        <time>1970-01-01T01:00:00Z</time>
      </trkpt>
      <trkpt lat="60.481206" lon="22.25728">
        <ele>25</ele>
        <time>1970-01-01T01:00:00Z</time>
      </trkpt>
      <trkpt lat="60.481205" lon="22.257342">
        <ele>24.9091</ele>
        <time>1970-01-01T01:00:00Z</time>
      </trkpt>
      <trkpt lat="60.481176" lon="22.257603">
        <ele>24.8182</ele>
        <time>1970-01-01T01:00:00Z</time>
      </trkpt>
      <trkpt lat="60.481149" lon="22.257802">
        <ele>24.7273</ele>
        <time>1970-01-01T01:00:00Z</time>
      </trkpt>
      <trkpt lat="60.48111" lon="22.257968">
        <ele>24.6364</ele>
        <time>1970-01-01T01:00:00Z</time>
      </trkpt>
      <trkpt lat="60.481033" lon="22.258346">
        <ele>24.5455</ele>
        <time>1970-01-01T01:00:00Z</time>
      </trkpt>
      <trkpt lat="60.481033" lon="22.258483">
        <ele>24.4545</ele>
        <time>1970-01-01T01:00:00Z</time>
      </trkpt>
      <trkpt lat="60.481145" lon="22.259442">
        <ele>24.3636</ele>
        <time>1970-01-01T01:00:00Z</time>
      </trkpt>
      <trkpt lat="60.481171" lon="22.25981">
        <ele>24.2727</ele>
        <time>1970-01-01T01:00:00Z</time>
      </trkpt>
      <trkpt lat="60.481176" lon="22.26009">
        <ele>24.1818</ele>
        <time>1970-01-01T01:00:00Z</time>
      </trkpt>
      <trkpt lat="60.48122" lon="22.260493">
        <ele>24.0909</ele>
        <time>1970-01-01T01:00:00Z</time>
      </trkpt>
      <trkpt lat="60.481243" lon="22.260726">
        <ele>24</ele>
        <time>1970-01-01T01:00:00Z</time>
      </trkpt>
      <trkpt lat="60.481303" lon="22.261116">
        <ele>24</ele>
        <time>1970-01-01T01:00:00Z</time>
      </trkpt>
      <trkpt lat="60.481335" lon="22.261322">
        <ele>24</ele>
        <time>1970-01-01T01:00:00Z</time>
      </trkpt>
      <trkpt lat="60.481415" lon="22.261725">
        <ele>24</ele>
        <time>1970-01-01T01:00:00Z</time>
      </trkpt>
      <trkpt lat="60.481584" lon="22.262323">
        <ele>24</ele>
        <time>1970-01-01T01:00:00Z</time>
      </trkpt>
      <trkpt lat="60.481639" lon="22.26251">
        <ele>24</ele>
        <time>1970-01-01T01:00:00Z</time>
      </trkpt>
      <trkpt lat="60.481773" lon="22.262747">
        <ele>24</ele>
        <time>1970-01-01T01:00:00Z</time>
      </trkpt>
      <trkpt lat="60.481881" lon="22.262963">
        <ele>24</ele>
        <time>1970-01-01T01:00:00Z</time>
      </trkpt>
      <trkpt lat="60.482024" lon="22.263128">
        <ele>24</ele>
        <time>1970-01-01T01:00:00Z</time>
      </trkpt>
      <trkpt lat="60.482194" lon="22.263353">
        <ele>24</ele>
        <time>1970-01-01T01:00:00Z</time>
      </trkpt>
      <trkpt lat="60.48232" lon="22.263531">
        <ele>24</ele>
        <time>1970-01-01T01:00:00Z</time>
      </trkpt>
      <trkpt lat="60.482526" lon="22.263713">
        <ele>24</ele>
        <time>1970-01-01T01:00:00Z</time>
      </trkpt>
      <trkpt lat="60.482683" lon="22.263777">
        <ele>24.3636</ele>
        <time>1970-01-01T01:00:00Z</time>
      </trkpt>
      <trkpt lat="60.482889" lon="22.263698">
        <ele>24.7273</ele>
        <time>1970-01-01T01:00:00Z</time>
      </trkpt>
      <trkpt lat="60.482949" lon="22.263644">
        <ele>25.0909</ele>
        <time>1970-01-01T01:00:00Z</time>
      </trkpt>
      <trkpt lat="60.483052" lon="22.263497">
        <ele>25.4545</ele>
        <time>1970-01-01T01:00:00Z</time>
      </trkpt>
      <trkpt lat="60.483202" lon="22.263319">
        <ele>25.8182</ele>
        <time>1970-01-01T01:00:00Z</time>
      </trkpt>
      <trkpt lat="60.483346" lon="22.263263">
        <ele>26.1818</ele>
        <time>1970-01-01T01:00:00Z</time>
      </trkpt>
      <trkpt lat="60.483543" lon="22.263156">
        <ele>26.5455</ele>
        <time>1970-01-01T01:00:00Z</time>
      </trkpt>
      <trkpt lat="60.483709" lon="22.263067">
        <ele>26.9091</ele>
        <time>1970-01-01T01:00:00Z</time>
      </trkpt>
      <trkpt lat="60.483829" lon="22.262977">
        <ele>27.2727</ele>
        <time>1970-01-01T01:00:00Z</time>
      </trkpt>
      <trkpt lat="60.48391" lon="22.262954">
        <ele>27.6364</ele>
        <time>1970-01-01T01:00:00Z</time>
      </trkpt>
      <trkpt lat="60.484018" lon="22.262938">
        <ele>28</ele>
        <time>1970-01-01T01:00:00Z</time>
      </trkpt>
      <trkpt lat="60.484059" lon="22.262936">
        <ele>28</ele>
        <time>1970-01-01T01:00:00Z</time>
      </trkpt>
      <trkpt lat="60.484183" lon="22.262847">
        <ele>28</ele>
        <time>1970-01-01T01:00:00Z</time>
      </trkpt>
      <trkpt lat="60.484232" lon="22.26282">
        <ele>28</ele>
        <time>1970-01-01T01:00:00Z</time>
      </trkpt>
      <trkpt lat="60.484327" lon="22.262795">
        <ele>28</ele>
        <time>1970-01-01T01:00:00Z</time>
      </trkpt>
      <trkpt lat="60.484384" lon="22.262785">
        <ele>28</ele>
        <time>1970-01-01T01:00:00Z</time>
      </trkpt>
      <trkpt lat="60.484535" lon="22.262802">
        <ele>28</ele>
        <time>1970-01-01T01:00:00Z</time>
      </trkpt>
      <trkpt lat="60.48468" lon="22.262833">
        <ele>28</ele>
        <time>1970-01-01T01:00:00Z</time>
      </trkpt>
      <trkpt lat="60.484798" lon="22.262826">
        <ele>28</ele>
        <time>1970-01-01T01:00:00Z</time>
      </trkpt>
      <trkpt lat="60.48494" lon="22.262782">
        <ele>28</ele>
        <time>1970-01-01T01:00:00Z</time>
      </trkpt>
      <trkpt lat="60.48504" lon="22.262741">
        <ele>28</ele>
        <time>1970-01-01T01:00:00Z</time>
      </trkpt>
      <trkpt lat="60.485195" lon="22.262629">
        <ele>28</ele>
        <time>1970-01-01T01:00:00Z</time>
      </trkpt>
      <trkpt lat="60.485336" lon="22.262378">
        <ele>28</ele>
        <time>1970-01-01T01:00:00Z</time>
      </trkpt>
      <trkpt lat="60.485363" lon="22.262042">
        <ele>28</ele>
        <time>1970-01-01T01:00:00Z</time>
      </trkpt>
      <trkpt lat="60.485364" lon="22.261754">
        <ele>28</ele>
        <time>1970-01-01T01:00:00Z</time>
      </trkpt>
      <trkpt lat="60.485337" lon="22.2615">
        <ele>28</ele>
        <time>1970-01-01T01:00:00Z</time>
      </trkpt>
      <trkpt lat="60.485328" lon="22.261418">
        <ele>28</ele>
        <time>1970-01-01T01:00:00Z</time>
      </trkpt>
      <trkpt lat="60.48527" lon="22.26102">
        <ele>28</ele>
        <time>1970-01-01T01:00:00Z</time>
      </trkpt>
      <trkpt lat="60.485226" lon="22.260748">
        <ele>28</ele>
        <time>1970-01-01T01:00:00Z</time>
      </trkpt>
      <trkpt lat="60.485222" lon="22.260647">
        <ele>28</ele>
        <time>1970-01-01T01:00:00Z</time>
      </trkpt>
      <trkpt lat="60.485212" lon="22.260418">
        <ele>28</ele>
        <time>1970-01-01T01:00:00Z</time>
      </trkpt>
      <trkpt lat="60.485139" lon="22.260097">
        <ele>28</ele>
        <time>1970-01-01T01:00:00Z</time>
      </trkpt>
      <trkpt lat="60.485097" lon="22.259792">
        <ele>28</ele>
        <time>1970-01-01T01:00:00Z</time>
      </trkpt>
      <trkpt lat="60.485037" lon="22.259531">
        <ele>28</ele>
        <time>1970-01-01T01:00:00Z</time>
      </trkpt>
      <trkpt lat="60.485011" lon="22.259361">
        <ele>28.4545</ele>
        <time>1970-01-01T01:00:00Z</time>
      </trkpt>
      <trkpt lat="60.485003" lon="22.259231">
        <ele>28.9091</ele>
        <time>1970-01-01T01:00:00Z</time>
      </trkpt>
      <trkpt lat="60.48499" lon="22.259008">
        <ele>29.3636</ele>
        <time>1970-01-01T01:00:00Z</time>
      </trkpt>
      <trkpt lat="60.485016" lon="22.258694">
        <ele>29.8182</ele>
        <time>1970-01-01T01:00:00Z</time>
      </trkpt>
      <trkpt lat="60.484998" lon="22.258452">
        <ele>30.2727</ele>
        <time>1970-01-01T01:00:00Z</time>
      </trkpt>
      <trkpt lat="60.485002" lon="22.25827">
        <ele>30.7273</ele>
        <time>1970-01-01T01:00:00Z</time>
      </trkpt>
      <trkpt lat="60.485007" lon="22.258206">
        <ele>31.1818</ele>
        <time>1970-01-01T01:00:00Z</time>
      </trkpt>
      <trkpt lat="60.484984" lon="22.258">
        <ele>31.6364</ele>
        <time>1970-01-01T01:00:00Z</time>
      </trkpt>
      <trkpt lat="60.484881" lon="22.25763">
        <ele>32.0909</ele>
        <time>1970-01-01T01:00:00Z</time>
      </trkpt>
      <trkpt lat="60.484826" lon="22.257478">
        <ele>32.5455</ele>
        <time>1970-01-01T01:00:00Z</time>
      </trkpt>
      <trkpt lat="60.484719" lon="22.256938">
        <ele>33</ele>
        <time>1970-01-01T01:00:00Z</time>
      </trkpt>
      <trkpt lat="60.484556" lon="22.256511">
        <ele>33</ele>
        <time>1970-01-01T01:00:00Z</time>
      </trkpt>
      <trkpt lat="60.484427" lon="22.256169">
        <ele>33</ele>
        <time>1970-01-01T01:00:00Z</time>
      </trkpt>
      <trkpt lat="60.48429" lon="22.255954">
        <ele>33</ele>
        <time>1970-01-01T01:00:00Z</time>
      </trkpt>
      <trkpt lat="60.484201" lon="22.255807">
        <ele>33</ele>
        <time>1970-01-01T01:00:00Z</time>
      </trkpt>
      <trkpt lat="60.483879" lon="22.255217">
        <ele>33</ele>
        <time>1970-01-01T01:00:00Z</time>
      </trkpt>
      <trkpt lat="60.483837" lon="22.255009">
        <ele>33</ele>
        <time>1970-01-01T01:00:00Z</time>
      </trkpt>
      <trkpt lat="60.483758" lon="22.254587">
        <ele>32.2727</ele>
        <time>1970-01-01T01:00:00Z</time>
      </trkpt>
      <trkpt lat="60.483746" lon="22.254488">
        <ele>31.5455</ele>
        <time>1970-01-01T01:00:00Z</time>
      </trkpt>
      <trkpt lat="60.48363" lon="22.254165">
        <ele>30.8182</ele>
        <time>1970-01-01T01:00:00Z</time>
      </trkpt>
      <trkpt lat="60.483459" lon="22.254024">
        <ele>30.0909</ele>
        <time>1970-01-01T01:00:00Z</time>
      </trkpt>
      <trkpt lat="60.483429" lon="22.254064">
        <ele>29.3636</ele>
        <time>1970-01-01T01:00:00Z</time>
      </trkpt>
      <trkpt lat="60.483299" lon="22.254264">
        <ele>28.6364</ele>
        <time>1970-01-01T01:00:00Z</time>
      </trkpt>
      <trkpt lat="60.483128" lon="22.254462">
        <ele>27.9091</ele>
        <time>1970-01-01T01:00:00Z</time>
      </trkpt>
      <trkpt lat="60.482956" lon="22.254527">
        <ele>27.1818</ele>
        <time>1970-01-01T01:00:00Z</time>
      </trkpt>
      <trkpt lat="60.482834" lon="22.254581">
        <ele>26.4545</ele>
        <time>1970-01-01T01:00:00Z</time>
      </trkpt>
      <trkpt lat="60.482685" lon="22.254609">
        <ele>25.7273</ele>
        <time>1970-01-01T01:00:00Z</time>
      </trkpt>
      <trkpt lat="60.482526" lon="22.254622">
        <ele>25</ele>
        <time>1970-01-01T01:00:00Z</time>
      </trkpt>
      <trkpt lat="60.482399" lon="22.254613">
        <ele>25</ele>
        <time>1970-01-01T01:00:00Z</time>
      </trkpt>
      <trkpt lat="60.48227" lon="22.254634">
        <ele>25</ele>
        <time>1970-01-01T01:00:00Z</time>
      </trkpt>
      <trkpt lat="60.482148" lon="22.254677">
        <ele>25</ele>
        <time>1970-01-01T01:00:00Z</time>
      </trkpt>
      <trkpt lat="60.482044" lon="22.254723">
        <ele>25</ele>
        <time>1970-01-01T01:00:00Z</time>
      </trkpt>
      <trkpt lat="60.481903" lon="22.254701">
        <ele>25</ele>
        <time>1970-01-01T01:00:00Z</time>
      </trkpt>
      <trkpt lat="60.481701" lon="22.254559">
        <ele>25</ele>
        <time>1970-01-01T01:00:00Z</time>
      </trkpt>
      <trkpt lat="60.481528" lon="22.25431">
        <ele>25</ele>
        <time>1970-01-01T01:00:00Z</time>
      </trkpt>
      <trkpt lat="60.481352" lon="22.253741">
        <ele>25</ele>
        <time>1970-01-01T01:00:00Z</time>
      </trkpt>
      <trkpt lat="60.481382" lon="22.253508">
        <ele>25</ele>
        <time>1970-01-01T01:00:00Z</time>
      </trkpt>
      <trkpt lat="60.481518" lon="22.25312">
        <ele>25</ele>
        <time>1970-01-01T01:00:00Z</time>
      </trkpt>
      <trkpt lat="60.481663" lon="22.252784">
        <ele>25</ele>
        <time>1970-01-01T01:00:00Z</time>
      </trkpt>
      <trkpt lat="60.48183" lon="22.252463">
        <ele>25</ele>
        <time>1970-01-01T01:00:00Z</time>
      </trkpt>
      <trkpt lat="60.481991" lon="22.252425">
        <ele>25</ele>
        <time>1970-01-01T01:00:00Z</time>
      </trkpt>
      <trkpt lat="60.482045" lon="22.25241">
        <ele>25</ele>
        <time>1970-01-01T01:00:00Z</time>
      </trkpt>
      <trkpt lat="60.482133" lon="22.252369">
        <ele>25</ele>
        <time>1970-01-01T01:00:00Z</time>
      </trkpt>
      <trkpt lat="60.482306" lon="22.252251">
        <ele>25</ele>
        <time>1970-01-01T01:00:00Z</time>
      </trkpt>
      <trkpt lat="60.482399" lon="22.252134">
        <ele>25</ele>
        <time>1970-01-01T01:00:00Z</time>
      </trkpt>
      <trkpt lat="60.482456" lon="22.252048">
        <ele>25</ele>
        <time>1970-01-01T01:00:00Z</time>
      </trkpt>
      <trkpt lat="60.482609" lon="22.252005">
        <ele>25</ele>
        <time>1970-01-01T01:00:00Z</time>
      </trkpt>
      <trkpt lat="60.482694" lon="22.252167">
        <ele>25</ele>
        <time>1970-01-01T01:00:00Z</time>
      </trkpt>
      <trkpt lat="60.48281" lon="22.252444">
        <ele>25</ele>
        <time>1970-01-01T01:00:00Z</time>
      </trkpt>
      <trkpt lat="60.482885" lon="22.252671">
        <ele>25.7273</ele>
        <time>1970-01-01T01:00:00Z</time>
      </trkpt>
      <trkpt lat="60.482999" lon="22.25277">
        <ele>26.4545</ele>
        <time>1970-01-01T01:00:00Z</time>
      </trkpt>
      <trkpt lat="60.483077" lon="22.252764">
        <ele>27.1818</ele>
        <time>1970-01-01T01:00:00Z</time>
      </trkpt>
      <trkpt lat="60.483193" lon="22.252637">
        <ele>27.9091</ele>
        <time>1970-01-01T01:00:00Z</time>
      </trkpt>
      <trkpt lat="60.483335" lon="22.252489">
        <ele>28.6364</ele>
        <time>1970-01-01T01:00:00Z</time>
      </trkpt>
      <trkpt lat="60.483487" lon="22.252334">
        <ele>28.6364</ele>
        <time>1970-01-01T01:00:00Z</time>
      </trkpt>
      <trkpt lat="60.483597" lon="22.252144">
        <ele>28.6364</ele>
        <time>1970-01-01T01:00:00Z</time>
      </trkpt>
      <trkpt lat="60.483615" lon="22.252023">
        <ele>28.6364</ele>
        <time>1970-01-01T01:00:00Z</time>
      </trkpt>
      <trkpt lat="60.483594" lon="22.251698">
        <ele>28.6364</ele>
        <time>1970-01-01T01:00:00Z</time>
      </trkpt>
      <trkpt lat="60.483469" lon="22.251397">
        <ele>28.6364</ele>
        <time>1970-01-01T01:00:00Z</time>
      </trkpt>
      <trkpt lat="60.48331" lon="22.251301">
        <ele>28.6364</ele>
        <time>1970-01-01T01:00:00Z</time>
      </trkpt>
      <trkpt lat="60.483122" lon="22.25142">
        <ele>27.9091</ele>
        <time>1970-01-01T01:00:00Z</time>
      </trkpt>
      <trkpt lat="60.483022" lon="22.251584">
        <ele>27.1818</ele>
        <time>1970-01-01T01:00:00Z</time>
      </trkpt>
      <trkpt lat="60.482957" lon="22.251692">
        <ele>26.4545</ele>
        <time>1970-01-01T01:00:00Z</time>
      </trkpt>
      <trkpt lat="60.48275" lon="22.252003">
        <ele>25.7273</ele>
        <time>1970-01-01T01:00:00Z</time>
      </trkpt>
      <trkpt lat="60.482683" lon="22.252093">
        <ele>25</ele>
        <time>1970-01-01T01:00:00Z</time>
      </trkpt>
      <trkpt lat="60.482466" lon="22.252134">
        <ele>25</ele>
        <time>1970-01-01T01:00:00Z</time>
      </trkpt>
      <trkpt lat="60.482311" lon="22.252305">
        <ele>25</ele>
        <time>1970-01-01T01:00:00Z</time>
      </trkpt>
      <trkpt lat="60.482129" lon="22.252437">
        <ele>25</ele>
        <time>1970-01-01T01:00:00Z</time>
      </trkpt>
      <trkpt lat="60.482016" lon="22.252324">
        <ele>25</ele>
        <time>1970-01-01T01:00:00Z</time>
      </trkpt>
      <trkpt lat="60.481882" lon="22.251971">
        <ele>25</ele>
        <time>1970-01-01T01:00:00Z</time>
      </trkpt>
      <trkpt lat="60.481776" lon="22.251715">
        <ele>25</ele>
        <time>1970-01-01T01:00:00Z</time>
      </trkpt>
      <trkpt lat="60.481654" lon="22.251449">
        <ele>25</ele>
        <time>1970-01-01T01:00:00Z</time>
      </trkpt>
      <trkpt lat="60.481584" lon="22.25142">
        <ele>25</ele>
        <time>1970-01-01T01:00:00Z</time>
      </trkpt>
      <trkpt lat="60.481545" lon="22.251493">
        <ele>25</ele>
        <time>1970-01-01T01:00:00Z</time>
      </trkpt>
      <trkpt lat="60.481461" lon="22.251591">
        <ele>25</ele>
        <time>1970-01-01T01:00:00Z</time>
      </trkpt>
      <trkpt lat="60.481434" lon="22.251626">
        <ele>25</ele>
        <time>1970-01-01T01:00:00Z</time>
      </trkpt>
      <trkpt lat="60.48124" lon="22.251794">
        <ele>25</ele>
        <time>1970-01-01T01:00:00Z</time>
      </trkpt>
      <trkpt lat="60.481086" lon="22.251939">
        <ele>25</ele>
        <time>1970-01-01T01:00:00Z</time>
      </trkpt>
      <trkpt lat="60.480958" lon="22.252021">
        <ele>25</ele>
        <time>1970-01-01T01:00:00Z</time>
      </trkpt>
      <trkpt lat="60.480778" lon="22.252147">
        <ele>25</ele>
        <time>1970-01-01T01:00:00Z</time>
      </trkpt>
      <trkpt lat="60.4807" lon="22.252216">
        <ele>25</ele>
        <time>1970-01-01T01:00:00Z</time>
      </trkpt>
      <trkpt lat="60.480537" lon="22.252351">
        <ele>25</ele>
        <time>1970-01-01T01:00:00Z</time>
      </trkpt>
      <trkpt lat="60.480466" lon="22.252441">
        <ele>25</ele>
        <time>1970-01-01T01:00:00Z</time>
      </trkpt>
      <trkpt lat="60.480272" lon="22.252644">
        <ele>25</ele>
        <time>1970-01-01T01:00:00Z</time>
      </trkpt>
      <trkpt lat="60.480079" lon="22.252856">
        <ele>25</ele>
        <time>1970-01-01T01:00:00Z</time>
      </trkpt>
      <trkpt lat="60.480051" lon="22.252909">
        <ele>25</ele>
        <time>1970-01-01T01:00:00Z</time>
      </trkpt>
      <trkpt lat="60.480014" lon="22.253263">
        <ele>25</ele>
        <time>1970-01-01T01:00:00Z</time>
      </trkpt>
      <trkpt lat="60.48013" lon="22.253518">
        <ele>25</ele>
        <time>1970-01-01T01:00:00Z</time>
      </trkpt>
      <trkpt lat="60.480263" lon="22.253571">
        <ele>25</ele>
        <time>1970-01-01T01:00:00Z</time>
      </trkpt>
      <trkpt lat="60.480325" lon="22.253566">
        <ele>25</ele>
        <time>1970-01-01T01:00:00Z</time>
      </trkpt>
      <trkpt lat="60.480455" lon="22.253479">
        <ele>25</ele>
        <time>1970-01-01T01:00:00Z</time>
      </trkpt>
      <trkpt lat="60.480486" lon="22.253447">
        <ele>25</ele>
        <time>1970-01-01T01:00:00Z</time>
      </trkpt>
      <trkpt lat="60.480618" lon="22.253333">
        <ele>25</ele>
        <time>1970-01-01T01:00:00Z</time>
      </trkpt>
      <trkpt lat="60.480727" lon="22.253283">
        <ele>25</ele>
        <time>1970-01-01T01:00:00Z</time>
      </trkpt>
      <trkpt lat="60.480825" lon="22.253322">
        <ele>25</ele>
        <time>1970-01-01T01:00:00Z</time>
      </trkpt>
      <trkpt lat="60.480903" lon="22.25339">
        <ele>25</ele>
        <time>1970-01-01T01:00:00Z</time>
      </trkpt>
      <trkpt lat="60.480941" lon="22.253423">
        <ele>25</ele>
        <time>1970-01-01T01:00:00Z</time>
      </trkpt>
      <trkpt lat="60.481051" lon="22.253525">
        <ele>25</ele>
        <time>1970-01-01T01:00:00Z</time>
      </trkpt>
      <trkpt lat="60.48112" lon="22.253594">
        <ele>25</ele>
        <time>1970-01-01T01:00:00Z</time>
      </trkpt>
      <trkpt lat="60.48119" lon="22.253679">
        <ele>25</ele>
        <time>1970-01-01T01:00:00Z</time>
      </trkpt>
      <trkpt lat="60.481279" lon="22.253795">
        <ele>25</ele>
        <time>1970-01-01T01:00:00Z</time>
      </trkpt>
      <trkpt lat="60.481331" lon="22.253926">
        <ele>25</ele>
        <time>1970-01-01T01:00:00Z</time>
      </trkpt>
      <trkpt lat="60.481428" lon="22.254059">
        <ele>25</ele>
        <time>1970-01-01T01:00:00Z</time>
      </trkpt>
      <trkpt lat="60.481474" lon="22.254144">
        <ele>25</ele>
        <time>1970-01-01T01:00:00Z</time>
      </trkpt>
      <trkpt lat="60.481544" lon="22.254327">
        <ele>25</ele>
        <time>1970-01-01T01:00:00Z</time>
      </trkpt>
      <trkpt lat="60.481469" lon="22.254588">
        <ele>25</ele>
        <time>1970-01-01T01:00:00Z</time>
      </trkpt>
      <trkpt lat="60.48137" lon="22.25475">
        <ele>25</ele>
        <time>1970-01-01T01:00:00Z</time>
      </trkpt>
      <trkpt lat="60.481205" lon="22.254973">
        <ele>25</ele>
        <time>1970-01-01T01:00:00Z</time>
      </trkpt>
      <trkpt lat="60.481168" lon="22.255004">
        <ele>25</ele>
        <time>1970-01-01T01:00:00Z</time>
      </trkpt>
      <trkpt lat="60.48106" lon="22.255143">
        <ele>25</ele>
        <time>1970-01-01T01:00:00Z</time>
      </trkpt>
      <trkpt lat="60.480862" lon="22.255299">
        <ele>25</ele>
        <time>1970-01-01T01:00:00Z</time>
      </trkpt>
      <trkpt lat="60.48078" lon="22.255429">
        <ele>25</ele>
        <time>1970-01-01T01:00:00Z</time>
      </trkpt>
      <trkpt lat="60.480708" lon="22.255652">
        <ele>25</ele>
        <time>1970-01-01T01:00:00Z</time>
      </trkpt>
      <trkpt lat="60.480694" lon="22.255758">
        <ele>25</ele>
        <time>1970-01-01T01:00:00Z</time>
      </trkpt>
      <trkpt lat="60.48073" lon="22.255916">
        <ele>25</ele>
        <time>1970-01-01T01:00:00Z</time>
      </trkpt>
      <trkpt lat="60.480772" lon="22.256053">
        <ele>25</ele>
        <time>1970-01-01T01:00:00Z</time>
      </trkpt>
      <trkpt lat="60.480822" lon="22.256147">
        <ele>25</ele>
        <time>1970-01-01T01:00:00Z</time>
      </trkpt>
      <trkpt lat="60.480915" lon="22.256289">
        <ele>25</ele>
        <time>1970-01-01T01:00:00Z</time>
      </trkpt>
      <trkpt lat="60.481005" lon="22.256442">
        <ele>25</ele>
        <time>1970-01-01T01:00:00Z</time>
      </trkpt>
      <trkpt lat="60.481022" lon="22.256482">
        <ele>25</ele>
        <time>1970-01-01T01:00:00Z</time>
      </trkpt>
      <trkpt lat="60.481122" lon="22.256593">
        <ele>25</ele>
        <time>1970-01-01T01:00:00Z</time>
      </trkpt>
      <trkpt lat="60.481174" lon="22.256721">
        <ele>25</ele>
        <time>1970-01-01T01:00:00Z</time>
      </trkpt>
      <trkpt lat="60.481196" lon="22.256892">
        <ele>25</ele>
        <time>1970-01-01T01:00:00Z</time>
      </trkpt>
      <trkpt lat="60.481235" lon="22.257072">
        <ele>25</ele>
        <time>1970-01-01T01:00:00Z</time>
      </trkpt>
      <trkpt lat="60.481243" lon="22.257254">
        <ele>24.9091</ele>
        <time>1970-01-01T01:00:00Z</time>
      </trkpt>
      <trkpt lat="60.481235" lon="22.257573">
        <ele>24.8182</ele>
        <time>1970-01-01T01:00:00Z</time>
      </trkpt>
      <trkpt lat="60.481189" lon="22.257771">
        <ele>24.7273</ele>
        <time>1970-01-01T01:00:00Z</time>
      </trkpt>
      <trkpt lat="60.481161" lon="22.257843">
        <ele>24.6364</ele>
        <time>1970-01-01T01:00:00Z</time>
      </trkpt>
      <trkpt lat="60.481145" lon="22.258031">
        <ele>24.5455</ele>
        <time>1970-01-01T01:00:00Z</time>
      </trkpt>
      <trkpt lat="60.481099" lon="22.258456">
        <ele>24.4545</ele>
        <time>1970-01-01T01:00:00Z</time>
      </trkpt>
      <trkpt lat="60.481117" lon="22.258737">
        <ele>24.3636</ele>
        <time>1970-01-01T01:00:00Z</time>
      </trkpt>
      <trkpt lat="60.481177" lon="22.259411">
        <ele>24.2727</ele>
        <time>1970-01-01T01:00:00Z</time>
      </trkpt>
      <trkpt lat="60.481211" lon="22.259631">
        <ele>24.1818</ele>
        <time>1970-01-01T01:00:00Z</time>
      </trkpt>
      <trkpt lat="60.481267" lon="22.259907">
        <ele>24.0909</ele>
        <time>1970-01-01T01:00:00Z</time>
      </trkpt>
      <trkpt lat="60.481277" lon="22.260163">
        <ele>24</ele>
        <time>1970-01-01T01:00:00Z</time>
      </trkpt>
      <trkpt lat="60.481285" lon="22.260238">
        <ele>24</ele>
        <time>1970-01-01T01:00:00Z</time>
      </trkpt>
      <trkpt lat="60.481329" lon="22.260567">
        <ele>24</ele>
        <time>1970-01-01T01:00:00Z</time>
      </trkpt>
      <trkpt lat="60.481354" lon="22.260896">
        <ele>24</ele>
        <time>1970-01-01T01:00:00Z</time>
      </trkpt>
      <trkpt lat="60.481439" lon="22.261383">
        <ele>24</ele>
        <time>1970-01-01T01:00:00Z</time>
      </trkpt>
      <trkpt lat="60.481454" lon="22.261465">
        <ele>24</ele>
        <time>1970-01-01T01:00:00Z</time>
      </trkpt>
      <trkpt lat="60.481507" lon="22.261793">
        <ele>24</ele>
        <time>1970-01-01T01:00:00Z</time>
      </trkpt>
      <trkpt lat="60.481617" lon="22.262192">
        <ele>24</ele>
        <time>1970-01-01T01:00:00Z</time>
      </trkpt>
      <trkpt lat="60.481654" lon="22.262383">
        <ele>24</ele>
        <time>1970-01-01T01:00:00Z</time>
      </trkpt>
      <trkpt lat="60.48174" lon="22.262695">
        <ele>24</ele>
        <time>1970-01-01T01:00:00Z</time>
      </trkpt>
      <trkpt lat="60.481878" lon="22.262971">
        <ele>24</ele>
        <time>1970-01-01T01:00:00Z</time>
      </trkpt>
      <trkpt lat="60.481911" lon="22.263019">
        <ele>24</ele>
        <time>1970-01-01T01:00:00Z</time>
      </trkpt>
      <trkpt lat="60.482013" lon="22.263188">
        <ele>24</ele>
        <time>1970-01-01T01:00:00Z</time>
      </trkpt>
      <trkpt lat="60.482139" lon="22.263351">
        <ele>24</ele>
        <time>1970-01-01T01:00:00Z</time>
      </trkpt>
      <trkpt lat="60.482224" lon="22.263447">
        <ele>24</ele>
        <time>1970-01-01T01:00:00Z</time>
      </trkpt>
      <trkpt lat="60.482438" lon="22.263612">
        <ele>24</ele>
        <time>1970-01-01T01:00:00Z</time>
      </trkpt>
      <trkpt lat="60.482517" lon="22.26366">
        <ele>24.3636</ele>
        <time>1970-01-01T01:00:00Z</time>
      </trkpt>
      <trkpt lat="60.482651" lon="22.263695">
        <ele>24.7273</ele>
        <time>1970-01-01T01:00:00Z</time>
      </trkpt>
      <trkpt lat="60.482874" lon="22.263645">
        <ele>25.0909</ele>
        <time>1970-01-01T01:00:00Z</time>
      </trkpt>
      <trkpt lat="60.483098" lon="22.263476">
        <ele>25.4545</ele>
        <time>1970-01-01T01:00:00Z</time>
      </trkpt>
      <trkpt lat="60.483131" lon="22.263439">
        <ele>25.8182</ele>
        <time>1970-01-01T01:00:00Z</time>
      </trkpt>
      <trkpt lat="60.483383" lon="22.263224">
        <ele>26.1818</ele>
        <time>1970-01-01T01:00:00Z</time>
      </trkpt>
      <trkpt lat="60.483525" lon="22.263178">
        <ele>26.5455</ele>
        <time>1970-01-01T01:00:00Z</time>
      </trkpt>
      <trkpt lat="60.483678" lon="22.263069">
        <ele>26.9091</ele>
        <time>1970-01-01T01:00:00Z</time>
      </trkpt>
      <trkpt lat="60.483789" lon="22.263007">
        <ele>27.2727</ele>
        <time>1970-01-01T01:00:00Z</time>
      </trkpt>
      <trkpt lat="60.483892" lon="22.262965">
        <ele>27.6364</ele>
        <time>1970-01-01T01:00:00Z</time>
      </trkpt>
      <trkpt lat="60.48397" lon="22.262911">
        <ele>28</ele>
        <time>1970-01-01T01:00:00Z</time>
      </trkpt>
      <trkpt lat="60.484101" lon="22.262836">
        <ele>28</ele>
        <time>1970-01-01T01:00:00Z</time>
      </trkpt>
      <trkpt lat="60.484198" lon="22.262807">
        <ele>28</ele>
        <time>1970-01-01T01:00:00Z</time>
      </trkpt>
      <trkpt lat="60.484284" lon="22.262784">
        <ele>28</ele>
        <time>1970-01-01T01:00:00Z</time>
      </trkpt>
      <trkpt lat="60.48441" lon="22.26278">
        <ele>28</ele>
        <time>1970-01-01T01:00:00Z</time>
      </trkpt>
      <trkpt lat="60.484529" lon="22.26273">
        <ele>28</ele>
        <time>1970-01-01T01:00:00Z</time>
      </trkpt>
      <trkpt lat="60.484741" lon="22.262734">
        <ele>28</ele>
        <time>1970-01-01T01:00:00Z</time>
      </trkpt>
      <trkpt lat="60.484889" lon="22.262732">
        <ele>28</ele>
        <time>1970-01-01T01:00:00Z</time>
      </trkpt>
      <trkpt lat="60.484982" lon="22.262744">
        <ele>28</ele>
        <time>1970-01-01T01:00:00Z</time>
      </trkpt>
      <trkpt lat="60.485056" lon="22.262744">
        <ele>28</ele>
        <time>1970-01-01T01:00:00Z</time>
      </trkpt>
      <trkpt lat="60.485158" lon="22.262678">
        <ele>28</ele>
        <time>1970-01-01T01:00:00Z</time>
      </trkpt>
      <trkpt lat="60.485284" lon="22.262504">
        <ele>28</ele>
        <time>1970-01-01T01:00:00Z</time>
      </trkpt>
      <trkpt lat="60.485361" lon="22.262247">
        <ele>28</ele>
        <time>1970-01-01T01:00:00Z</time>
      </trkpt>
      <trkpt lat="60.485396" lon="22.262082">
        <ele>28</ele>
        <time>1970-01-01T01:00:00Z</time>
      </trkpt>
      <trkpt lat="60.485318" lon="22.261798">
        <ele>28</ele>
        <time>1970-01-01T01:00:00Z</time>
      </trkpt>
      <trkpt lat="60.485279" lon="22.261528">
        <ele>28</ele>
        <time>1970-01-01T01:00:00Z</time>
      </trkpt>
      <trkpt lat="60.485269" lon="22.261431">
        <ele>28</ele>
        <time>1970-01-01T01:00:00Z</time>
      </trkpt>
      <trkpt lat="60.485244" lon="22.26121">
        <ele>28</ele>
        <time>1970-01-01T01:00:00Z</time>
      </trkpt>
      <trkpt lat="60.485222" lon="22.260788">
        <ele>28</ele>
        <time>1970-01-01T01:00:00Z</time>
      </trkpt>
      <trkpt lat="60.485192" lon="22.260576">
        <ele>28</ele>
        <time>1970-01-01T01:00:00Z</time>
      </trkpt>
      <trkpt lat="60.485191" lon="22.260325">
        <ele>28</ele>
        <time>1970-01-01T01:00:00Z</time>
      </trkpt>
      <trkpt lat="60.485159" lon="22.259989">
        <ele>28</ele>
        <time>1970-01-01T01:00:00Z</time>
      </trkpt>
      <trkpt lat="60.485117" lon="22.25979">
        <ele>28</ele>
        <time>1970-01-01T01:00:00Z</time>
      </trkpt>
      <trkpt lat="60.485077" lon="22.25963">
        <ele>28.4545</ele>
        <time>1970-01-01T01:00:00Z</time>
      </trkpt>
      <trkpt lat="60.485036" lon="22.259391">
        <ele>28.9091</ele>
        <time>1970-01-01T01:00:00Z</time>
      </trkpt>
      <trkpt lat="60.485034" lon="22.259138">
        <ele>29.3636</ele>
        <time>1970-01-01T01:00:00Z</time>
      </trkpt>
      <trkpt lat="60.485041" lon="22.258964">
        <ele>29.8182</ele>
        <time>1970-01-01T01:00:00Z</time>
      </trkpt>
      <trkpt lat="60.485062" lon="22.258645">
        <ele>30.2727</ele>
        <time>1970-01-01T01:00:00Z</time>
      </trkpt>
      <trkpt lat="60.485034" lon="22.258403">
        <ele>30.7273</ele>
        <time>1970-01-01T01:00:00Z</time>
      </trkpt>
      <trkpt lat="60.484987" lon="22.258168">
        <ele>31.1818</ele>
        <time>1970-01-01T01:00:00Z</time>
      </trkpt>
      <trkpt lat="60.484952" lon="22.258051">
        <ele>31.6364</ele>
        <time>1970-01-01T01:00:00Z</time>
      </trkpt>
      <trkpt lat="60.484923" lon="22.257765">
        <ele>32.0909</ele>
        <time>1970-01-01T01:00:00Z</time>
      </trkpt>
      <trkpt lat="60.484826" lon="22.257379">
        <ele>32.5455</ele>
        <time>1970-01-01T01:00:00Z</time>
      </trkpt>
      <trkpt lat="60.484757" lon="22.257041">
        <ele>33</ele>
        <time>1970-01-01T01:00:00Z</time>
      </trkpt>
      <trkpt lat="60.484704" lon="22.256826">
        <ele>33</ele>
        <time>1970-01-01T01:00:00Z</time>
      </trkpt>
      <trkpt lat="60.484628" lon="22.256588">
        <ele>33</ele>
        <time>1970-01-01T01:00:00Z</time>
      </trkpt>
      <trkpt lat="60.484536" lon="22.256276">
        <ele>33</ele>
        <time>1970-01-01T01:00:00Z</time>
      </trkpt>
      <trkpt lat="60.484208" lon="22.255674">
        <ele>33</ele>
        <time>1970-01-01T01:00:00Z</time>
      </trkpt>
      <trkpt lat="60.48392" lon="22.255196">
        <ele>33</ele>
        <time>1970-01-01T01:00:00Z</time>
      </trkpt>
      <trkpt lat="60.483857" lon="22.255041">
        <ele>32.2727</ele>
        <time>1970-01-01T01:00:00Z</time>
      </trkpt>
      <trkpt lat="60.483784" lon="22.254752">
        <ele>31.5455</ele>
        <time>1970-01-01T01:00:00Z</time>
      </trkpt>
      <trkpt lat="60.48374" lon="22.254458">
        <ele>30.8182</ele>
        <time>1970-01-01T01:00:00Z</time>
      </trkpt>
      <trkpt lat="60.483668" lon="22.254147">
        <ele>30.0909</ele>
        <time>1970-01-01T01:00:00Z</time>
      </trkpt>
      <trkpt lat="60.483521" lon="22.254069">
        <ele>29.3636</ele>
        <time>1970-01-01T01:00:00Z</time>
      </trkpt>
      <trkpt lat="60.483337" lon="22.254161">
        <ele>28.6364</ele>
        <time>1970-01-01T01:00:00Z</time>
      </trkpt>
      <trkpt lat="60.483306" lon="22.254204">
        <ele>27.9091</ele>
        <time>1970-01-01T01:00:00Z</time>
      </trkpt>
      <trkpt lat="60.483248" lon="22.254298">
        <ele>27.1818</ele>
        <time>1970-01-01T01:00:00Z</time>
      </trkpt>
      <trkpt lat="60.483107" lon="22.254458">
        <ele>26.4545</ele>
        <time>1970-01-01T01:00:00Z</time>
      </trkpt>
      <trkpt lat="60.482979" lon="22.254537">
        <ele>25.7273</ele>
        <time>1970-01-01T01:00:00Z</time>
      </trkpt>
      <trkpt lat="60.482872" lon="22.254558">
        <ele>25</ele>
        <time>1970-01-01T01:00:00Z</time>
      </trkpt>
      <trkpt lat="60.48272" lon="22.254598">
        <ele>25</ele>
        <time>1970-01-01T01:00:00Z</time>
      </trkpt>
      <trkpt lat="60.482631" lon="22.254619">
        <ele>25</ele>
        <time>1970-01-01T01:00:00Z</time>
      </trkpt>
      <trkpt lat="60.482436" lon="22.254714">
        <ele>25</ele>
        <time>1970-01-01T01:00:00Z</time>
      </trkpt>
      <trkpt lat="60.482371" lon="22.254707">
        <ele>25</ele>
        <time>1970-01-01T01:00:00Z</time>
      </trkpt>
      <trkpt lat="60.482261" lon="22.254691">
        <ele>25</ele>
        <time>1970-01-01T01:00:00Z</time>
      </trkpt>
      <trkpt lat="60.482144" lon="22.254754">
        <ele>25</ele>
        <time>1970-01-01T01:00:00Z</time>
      </trkpt>
      <trkpt lat="60.48203" lon="22.254728">
        <ele>25</ele>
        <time>1970-01-01T01:00:00Z</time>
      </trkpt>
      <trkpt lat="60.481898" lon="22.254705">
        <ele>25</ele>
        <time>1970-01-01T01:00:00Z</time>
      </trkpt>
      <trkpt lat="60.481679" lon="22.254548">
        <ele>25</ele>
        <time>1970-01-01T01:00:00Z</time>
      </trkpt>
      <trkpt lat="60.481619" lon="22.254471">
        <ele>25</ele>
        <time>1970-01-01T01:00:00Z</time>
      </trkpt>
      <trkpt lat="60.481358" lon="22.253879">
        <ele>25</ele>
        <time>1970-01-01T01:00:00Z</time>
      </trkpt>
      <trkpt lat="60.481359" lon="22.253569">
        <ele>25</ele>
        <time>1970-01-01T01:00:00Z</time>
      </trkpt>
      <trkpt lat="60.481414" lon="22.253328">
        <ele>25</ele>
        <time>1970-01-01T01:00:00Z</time>
      </trkpt>
      <trkpt lat="60.481513" lon="22.253027">
        <ele>25</ele>
        <time>1970-01-01T01:00:00Z</time>
      </trkpt>
      <trkpt lat="60.481555" lon="22.252881">
        <ele>25</ele>
        <time>1970-01-01T01:00:00Z</time>
      </trkpt>
      <trkpt lat="60.481708" lon="22.252513">
        <ele>25</ele>
        <time>1970-01-01T01:00:00Z</time>
      </trkpt>
      <trkpt lat="60.481861" lon="22.252348">
        <ele>25</ele>
        <time>1970-01-01T01:00:00Z</time>
      </trkpt>
      <trkpt lat="60.481913" lon="22.252349">
        <ele>25</ele>
        <time>1970-01-01T01:00:00Z</time>
      </trkpt>
      <trkpt lat="60.482032" lon="22.252367">
        <ele>25</ele>
        <time>1970-01-01T01:00:00Z</time>
      </trkpt>
      <trkpt lat="60.482247" lon="22.252328">
        <ele>25</ele>
        <time>1970-01-01T01:00:00Z</time>
      </trkpt>
      <trkpt lat="60.4824" lon="22.252207">
        <ele>25</ele>
        <time>1970-01-01T01:00:00Z</time>
      </trkpt>
      <trkpt lat="60.482462" lon="22.252129">
        <ele>25</ele>
        <time>1970-01-01T01:00:00Z</time>
      </trkpt>
      <trkpt lat="60.482665" lon="22.25205">
        <ele>25</ele>
        <time>1970-01-01T01:00:00Z</time>
      </trkpt>
      <trkpt lat="60.482721" lon="22.252161">
        <ele>25</ele>
        <time>1970-01-01T01:00:00Z</time>
      </trkpt>
      <trkpt lat="60.482842" lon="22.252427">
        <ele>25</ele>
        <time>1970-01-01T01:00:00Z</time>
      </trkpt>
      <trkpt lat="60.482916" lon="22.252601">
        <ele>25.7273</ele>
        <time>1970-01-01T01:00:00Z</time>
      </trkpt>
      <trkpt lat="60.48301" lon="22.252666">
        <ele>26.4545</ele>
        <time>1970-01-01T01:00:00Z</time>
      </trkpt>
      <trkpt lat="60.483142" lon="22.252682">
        <ele>27.1818</ele>
        <time>1970-01-01T01:00:00Z</time>
      </trkpt>
      <trkpt lat="60.483256" lon="22.252543">
        <ele>27.9091</ele>
        <time>1970-01-01T01:00:00Z</time>
      </trkpt>
      <trkpt lat="60.483283" lon="22.252494">
        <ele>28.6364</ele>
        <time>1970-01-01T01:00:00Z</time>
      </trkpt>
      <trkpt lat="60.483486" lon="22.252312">
        <ele>28.6364</ele>
        <time>1970-01-01T01:00:00Z</time>
      </trkpt>
      <trkpt lat="60.483595" lon="22.252122">
        <ele>28.6364</ele>
        <time>1970-01-01T01:00:00Z</time>
      </trkpt>
      <trkpt lat="60.483618" lon="22.251983">
        <ele>28.6364</ele>
        <time>1970-01-01T01:00:00Z</time>
      </trkpt>
      <trkpt lat="60.483534" lon="22.251478">
        <ele>28.6364</ele>
        <time>1970-01-01T01:00:00Z</time>
      </trkpt>
      <trkpt lat="60.483381" lon="22.251257">
        <ele>28.6364</ele>
        <time>1970-01-01T01:00:00Z</time>
      </trkpt>
      <trkpt lat="60.483226" lon="22.251259">
        <ele>28.6364</ele>
        <time>1970-01-01T01:00:00Z</time>
      </trkpt>
      <trkpt lat="60.483146" lon="22.251296">
        <ele>27.9091</ele>
        <time>1970-01-01T01:00:00Z</time>
      </trkpt>
      <trkpt lat="60.48307" lon="22.251361">
        <ele>27.1818</ele>
        <time>1970-01-01T01:00:00Z</time>
      </trkpt>
      <trkpt lat="60.483009" lon="22.251461">
        <ele>26.4545</ele>
        <time>1970-01-01T01:00:00Z</time>
      </trkpt>
      <trkpt lat="60.482885" lon="22.25167">
        <ele>25.7273</ele>
        <time>1970-01-01T01:00:00Z</time>
      </trkpt>
      <trkpt lat="60.482858" lon="22.251718">
        <ele>25</ele>
        <time>1970-01-01T01:00:00Z</time>
      </trkpt>
      <trkpt lat="60.482732" lon="22.251927">
        <ele>25</ele>
        <time>1970-01-01T01:00:00Z</time>
      </trkpt>
      <trkpt lat="60.482599" lon="22.252063">
        <ele>25</ele>
        <time>1970-01-01T01:00:00Z</time>
      </trkpt>
      <trkpt lat="60.482441" lon="22.252054">
        <ele>25</ele>
        <time>1970-01-01T01:00:00Z</time>
      </trkpt>
      <trkpt lat="60.48234" lon="22.25215">
        <ele>25</ele>
        <time>1970-01-01T01:00:00Z</time>
      </trkpt>
      <trkpt lat="60.48221" lon="22.252314">
        <ele>25</ele>
        <time>1970-01-01T01:00:00Z</time>
      </trkpt>
      <trkpt lat="60.482111" lon="22.252379">
        <ele>25</ele>
        <time>1970-01-01T01:00:00Z</time>
      </trkpt>
      <trkpt lat="60.481988" lon="22.252237">
        <ele>25</ele>
        <time>1970-01-01T01:00:00Z</time>
      </trkpt>
      <trkpt lat="60.481861" lon="22.252023">
        <ele>25</ele>
        <time>1970-01-01T01:00:00Z</time>
      </trkpt>
      <trkpt lat="60.481765" lon="22.251757">
        <ele>25</ele>
        <time>1970-01-01T01:00:00Z</time>
      </trkpt>
      <trkpt lat="60.481639" lon="22.251427">
        <ele>25</ele>
        <time>1970-01-01T01:00:00Z</time>
      </trkpt>
      <trkpt lat="60.481508" lon="22.251425">
        <ele>25</ele>
        <time>1970-01-01T01:00:00Z</time>
      </trkpt>
      <trkpt lat="60.481447" lon="22.251485">
        <ele>25</ele>
        <time>1970-01-01T01:00:00Z</time>
      </trkpt>
      <trkpt lat="60.481297" lon="22.251667">
        <ele>25</ele>
        <time>1970-01-01T01:00:00Z</time>
      </trkpt>
      <trkpt lat="60.481128" lon="22.251882">
        <ele>25</ele>
        <time>1970-01-01T01:00:00Z</time>
      </trkpt>
      <trkpt lat="60.480962" lon="22.252044">
        <ele>25</ele>
        <time>1970-01-01T01:00:00Z</time>
      </trkpt>
      <trkpt lat="60.480783" lon="22.252187">
        <ele>25</ele>
        <time>1970-01-01T01:00:00Z</time>
      </trkpt>
      <trkpt lat="60.480634" lon="22.252311">
        <ele>25</ele>
        <time>1970-01-01T01:00:00Z</time>
      </trkpt>
      <trkpt lat="60.480419" lon="22.252477">
        <ele>25</ele>
        <time>1970-01-01T01:00:00Z</time>
      </trkpt>
      <trkpt lat="60.480335" lon="22.25262">
        <ele>25</ele>
        <time>1970-01-01T01:00:00Z</time>
      </trkpt>
      <trkpt lat="60.48031" lon="22.252659">
        <ele>25</ele>
        <time>1970-01-01T01:00:00Z</time>
      </trkpt>
      <trkpt lat="60.480118" lon="22.25286">
        <ele>25</ele>
        <time>1970-01-01T01:00:00Z</time>
      </trkpt>
      <trkpt lat="60.480021" lon="22.253007">
        <ele>25</ele>
        <time>1970-01-01T01:00:00Z</time>
      </trkpt>
      <trkpt lat="60.480031" lon="22.253415">
        <ele>25</ele>
        <time>1970-01-01T01:00:00Z</time>
      </trkpt>
      <trkpt lat="60.480172" lon="22.25359">
        <ele>25</ele>
        <time>1970-01-01T01:00:00Z</time>
      </trkpt>
      <trkpt lat="60.480228" lon="22.253623">
        <ele>25</ele>
        <time>1970-01-01T01:00:00Z</time>
      </trkpt>
      <trkpt lat="60.480399" lon="22.253574">
        <ele>25</ele>
        <time>1970-01-01T01:00:00Z</time>
      </trkpt>
      <trkpt lat="60.480526" lon="22.253477">
        <ele>25</ele>
        <time>1970-01-01T01:00:00Z</time>
      </trkpt>
      <trkpt lat="60.480616" lon="22.253417">
        <ele>25</ele>
        <time>1970-01-01T01:00:00Z</time>
      </trkpt>
      <trkpt lat="60.480747" lon="22.253359">
        <ele>25</ele>
        <time>1970-01-01T01:00:00Z</time>
      </trkpt>
      <trkpt lat="60.480856" lon="22.253386">
        <ele>25</ele>
        <time>1970-01-01T01:00:00Z</time>
      </trkpt>
      <trkpt lat="60.48093" lon="22.253434">
        <ele>25</ele>
        <time>1970-01-01T01:00:00Z</time>
      </trkpt>
      <trkpt lat="60.481067" lon="22.253561">
        <ele>25</ele>
        <time>1970-01-01T01:00:00Z</time>
      </trkpt>
      <trkpt lat="60.481091" lon="22.253564">
        <ele>25</ele>
        <time>1970-01-01T01:00:00Z</time>
      </trkpt>
      <trkpt lat="60.481172" lon="22.253672">
        <ele>25</ele>
        <time>1970-01-01T01:00:00Z</time>
      </trkpt>
      <trkpt lat="60.481214" lon="22.253756">
        <ele>25</ele>
        <time>1970-01-01T01:00:00Z</time>
      </trkpt>
      <trkpt lat="60.481329" lon="22.253949">
        <ele>25</ele>
        <time>1970-01-01T01:00:00Z</time>
      </trkpt>
      <trkpt lat="60.481424" lon="22.254112">
        <ele>25</ele>
        <time>1970-01-01T01:00:00Z</time>
      </trkpt>
      <trkpt lat="60.481502" lon="22.254307">
        <ele>25</ele>
        <time>1970-01-01T01:00:00Z</time>
      </trkpt>
      <trkpt lat="60.48151" lon="22.254503">
        <ele>25</ele>
        <time>1970-01-01T01:00:00Z</time>
      </trkpt>
      <trkpt lat="60.481381" lon="22.254709">
        <ele>25</ele>
        <time>1970-01-01T01:00:00Z</time>
      </trkpt>
      <trkpt lat="60.481243" lon="22.254826">
        <ele>25</ele>
        <time>1970-01-01T01:00:00Z</time>
      </trkpt>
      <trkpt lat="60.481096" lon="22.255008">
        <ele>25</ele>
        <time>1970-01-01T01:00:00Z</time>
      </trkpt>
      <trkpt lat="60.48106" lon="22.255046">
        <ele>25</ele>
        <time>1970-01-01T01:00:00Z</time>
      </trkpt>
      <trkpt lat="60.480909" lon="22.255187">
        <ele>25</ele>
        <time>1970-01-01T01:00:00Z</time>
      </trkpt>
      <trkpt lat="60.480839" lon="22.255269">
        <ele>25</ele>
        <time>1970-01-01T01:00:00Z</time>
      </trkpt>
      <trkpt lat="60.480793" lon="22.255402">
        <ele>25</ele>
        <time>1970-01-01T01:00:00Z</time>
      </trkpt>
      <trkpt lat="60.480769" lon="22.255551">
        <ele>25</ele>
        <time>1970-01-01T01:00:00Z</time>
      </trkpt>
      <trkpt lat="60.480764" lon="22.255713">
        <ele>25</ele>
        <time>1970-01-01T01:00:00Z</time>
      </trkpt>
      <trkpt lat="60.480768" lon="22.255777">
        <ele>25</ele>
        <time>1970-01-01T01:00:00Z</time>
      </trkpt>
      <trkpt lat="60.480808" lon="22.255977">
        <ele>25</ele>
        <time>1970-01-01T01:00:00Z</time>
      </trkpt>
      <trkpt lat="60.480834" lon="22.256049">
        <ele>25</ele>
        <time>1970-01-01T01:00:00Z</time>
      </trkpt>
      <trkpt lat="60.480957" lon="22.256222">
        <ele>25</ele>
        <time>1970-01-01T01:00:00Z</time>
      </trkpt>
      <trkpt lat="60.481063" lon="22.256368">
        <ele>25</ele>
        <time>1970-01-01T01:00:00Z</time>
      </trkpt>
      <trkpt lat="60.481181" lon="22.256565">
        <ele>25</ele>
        <time>1970-01-01T01:00:00Z</time>
      </trkpt>
      <trkpt lat="60.481225" lon="22.256707">
        <ele>25</ele>
        <time>1970-01-01T01:00:00Z</time>
      </trkpt>
      <trkpt lat="60.481251" lon="22.256994">
        <ele>25</ele>
        <time>1970-01-01T01:00:00Z</time>
      </trkpt>
      <trkpt lat="60.481235" lon="22.257202">
        <ele>24.9091</ele>
        <time>1970-01-01T01:00:00Z</time>
      </trkpt>
      <trkpt lat="60.481233" lon="22.257258">
        <ele>24.8182</ele>
        <time>1970-01-01T01:00:00Z</time>
      </trkpt>
      <trkpt lat="60.481214" lon="22.257518">
        <ele>24.7273</ele>
        <time>1970-01-01T01:00:00Z</time>
      </trkpt>
      <trkpt lat="60.481172" lon="22.257788">
        <ele>24.6364</ele>
        <time>1970-01-01T01:00:00Z</time>
      </trkpt>
      <trkpt lat="60.481113" lon="22.258097">
        <ele>24.5455</ele>
        <time>1970-01-01T01:00:00Z</time>
      </trkpt>
      <trkpt lat="60.48107" lon="22.258545">
        <ele>24.4545</ele>
        <time>1970-01-01T01:00:00Z</time>
      </trkpt>
      <trkpt lat="60.481079" lon="22.258677">
        <ele>24.3636</ele>
        <time>1970-01-01T01:00:00Z</time>
      </trkpt>
      <trkpt lat="60.481144" lon="22.259324">
        <ele>24.2727</ele>
        <time>1970-01-01T01:00:00Z</time>
      </trkpt>
      <trkpt lat="60.481185" lon="22.259666">
        <ele>24.1818</ele>
        <time>1970-01-01T01:00:00Z</time>
      </trkpt>
      <trkpt lat="60.481202" lon="22.25983">
        <ele>24.0909</ele>
        <time>1970-01-01T01:00:00Z</time>
      </trkpt>
      <trkpt lat="60.481244" lon="22.260097">
        <ele>24</ele>
        <time>1970-01-01T01:00:00Z</time>
      </trkpt>
      <trkpt lat="60.481293" lon="22.260461">
        <ele>24</ele>
        <time>1970-01-01T01:00:00Z</time>
      </trkpt>
      <trkpt lat="60.481316" lon="22.260727">
        <ele>24</ele>
        <time>1970-01-01T01:00:00Z</time>
      </trkpt>
      <trkpt lat="60.481373" lon="22.261095">
        <ele>24</ele>
        <time>1970-01-01T01:00:00Z</time>
      </trkpt>
      <trkpt lat="60.481422" lon="22.26142">
        <ele>24</ele>
        <time>1970-01-01T01:00:00Z</time>
      </trkpt>
      <trkpt lat="60.481463" lon="22.261684">
        <ele>24</ele>
        <time>1970-01-01T01:00:00Z</time>
      </trkpt>
      <trkpt lat="60.481627" lon="22.262284">
        <ele>24</ele>
        <time>1970-01-01T01:00:00Z</time>
      </trkpt>
      <trkpt lat="60.481708" lon="22.262588">
        <ele>24</ele>
        <time>1970-01-01T01:00:00Z</time>
      </trkpt>
      <trkpt lat="60.481852" lon="22.26286">
        <ele>24</ele>
        <time>1970-01-01T01:00:00Z</time>
      </trkpt>
      <trkpt lat="60.482025" lon="22.263059">
        <ele>24</ele>
        <time>1970-01-01T01:00:00Z</time>
      </trkpt>
      <trkpt lat="60.482272" lon="22.26334">
        <ele>24</ele>
        <time>1970-01-01T01:00:00Z</time>
      </trkpt>
      <trkpt lat="60.482311" lon="22.263392">
        <ele>24</ele>
        <time>1970-01-01T01:00:00Z</time>
      </trkpt>
      <trkpt lat="60.482472" lon="22.263546">
        <ele>24</ele>
        <time>1970-01-01T01:00:00Z</time>
      </trkpt>
      <trkpt lat="60.482626" lon="22.263628">
        <ele>24</ele>
        <time>1970-01-01T01:00:00Z</time>
      </trkpt>
      <trkpt lat="60.482737" lon="22.263644">
        <ele>24.3636</ele>
        <time>1970-01-01T01:00:00Z</time>
      </trkpt>
      <trkpt lat="60.482771" lon="22.263651">
        <ele>24.7273</ele>
        <time>1970-01-01T01:00:00Z</time>
      </trkpt>
      <trkpt lat="60.482977" lon="22.263601">
        <ele>25.0909</ele>
        <time>1970-01-01T01:00:00Z</time>
      </trkpt>
      <trkpt lat="60.483142" lon="22.2634">
        <ele>25.4545</ele>
        <time>1970-01-01T01:00:00Z</time>
      </trkpt>
      <trkpt lat="60.483246" lon="22.263334">
        <ele>25.8182</ele>
        <time>1970-01-01T01:00:00Z</time>
      </trkpt>
      <trkpt lat="60.483439" lon="22.263253">
        <ele>26.1818</ele>
        <time>1970-01-01T01:00:00Z</time>
      </trkpt>
      <trkpt lat="60.483603" lon="22.263112">
        <ele>26.5455</ele>
        <time>1970-01-01T01:00:00Z</time>
      </trkpt>
      <trkpt lat="60.483714" lon="22.26304">
        <ele>26.9091</ele>
        <time>1970-01-01T01:00:00Z</time>
      </trkpt>
      <trkpt lat="60.483814" lon="22.262998">
        <ele>27.2727</ele>
        <time>1970-01-01T01:00:00Z</time>
      </trkpt>
      <trkpt lat="60.483918" lon="22.262964">
        <ele>27.6364</ele>
        <time>1970-01-01T01:00:00Z</time>
      </trkpt>
      <trkpt lat="60.484028" lon="22.26293">
        <ele>28</ele>
        <time>1970-01-01T01:00:00Z</time>
      </trkpt>
      <trkpt lat="60.484144" lon="22.262888">
        <ele>28</ele>
        <time>1970-01-01T01:00:00Z</time>
      </trkpt>
      <trkpt lat="60.484268" lon="22.262858">
        <ele>28</ele>
        <time>1970-01-01T01:00:00Z</time>
      </trkpt>
      <trkpt lat="60.484374" lon="22.262871">
        <ele>28</ele>
        <time>1970-01-01T01:00:00Z</time>
      </trkpt>
      <trkpt lat="60.484452" lon="22.262858">
        <ele>28</ele>
        <time>1970-01-01T01:00:00Z</time>
      </trkpt>
      <trkpt lat="60.484615" lon="22.262798">
        <ele>28</ele>
        <time>1970-01-01T01:00:00Z</time>
      </trkpt>
      <trkpt lat="60.48474" lon="22.262762">
        <ele>28</ele>
        <time>1970-01-01T01:00:00Z</time>
      </trkpt>
      <trkpt lat="60.484772" lon="22.262745">
        <ele>28</ele>
        <time>1970-01-01T01:00:00Z</time>
      </trkpt>
      <trkpt lat="60.484912" lon="22.262739">
        <ele>28</ele>
        <time>1970-01-01T01:00:00Z</time>
      </trkpt>
      <trkpt lat="60.484938" lon="22.262731">
        <ele>28</ele>
        <time>1970-01-01T01:00:00Z</time>
      </trkpt>
      <trkpt lat="60.485098" lon="22.262701">
        <ele>28</ele>
        <time>1970-01-01T01:00:00Z</time>
      </trkpt>
      <trkpt lat="60.48522" lon="22.262611">
        <ele>28</ele>
        <time>1970-01-01T01:00:00Z</time>
      </trkpt>
      <trkpt lat="60.485326" lon="22.262421">
        <ele>28</ele>
        <time>1970-01-01T01:00:00Z</time>
      </trkpt>
      <trkpt lat="60.485396" lon="22.262136">
        <ele>28</ele>
        <time>1970-01-01T01:00:00Z</time>
      </trkpt>
      <trkpt lat="60.485402" lon="22.262048">
        <ele>28</ele>
        <time>1970-01-01T01:00:00Z</time>
      </trkpt>
      <trkpt lat="60.485331" lon="22.261702">
        <ele>28</ele>
        <time>1970-01-01T01:00:00Z</time>
      </trkpt>
      <trkpt lat="60.485284" lon="22.261297">
        <ele>28</ele>
        <time>1970-01-01T01:00:00Z</time>
      </trkpt>
      <trkpt lat="60.485263" lon="22.260964">
        <ele>28</ele>
        <time>1970-01-01T01:00:00Z</time>
      </trkpt>
      <trkpt lat="60.48524" lon="22.260722">
        <ele>28</ele>
        <time>1970-01-01T01:00:00Z</time>
      </trkpt>
      <trkpt lat="60.485214" lon="22.260437">
        <ele>28</ele>
        <time>1970-01-01T01:00:00Z</time>
      </trkpt>
      <trkpt lat="60.485169" lon="22.260068">
        <ele>28</ele>
        <time>1970-01-01T01:00:00Z</time>
      </trkpt>
      <trkpt lat="60.48512" lon="22.259722">
        <ele>28</ele>
        <time>1970-01-01T01:00:00Z</time>
      </trkpt>
      <trkpt lat="60.485073" lon="22.259531">
        <ele>28</ele>
        <time>1970-01-01T01:00:00Z</time>
      </trkpt>
      <trkpt lat="60.485066" lon="22.259363">
        <ele>28.4545</ele>
        <time>1970-01-01T01:00:00Z</time>
      </trkpt>
      <trkpt lat="60.485043" lon="22.259158">
        <ele>28.9091</ele>
        <time>1970-01-01T01:00:00Z</time>
      </trkpt>
      <trkpt lat="60.485048" lon="22.259058">
        <ele>29.3636</ele>
        <time>1970-01-01T01:00:00Z</time>
      </trkpt>
      <trkpt lat="60.485031" lon="22.258697">
        <ele>29.8182</ele>
        <time>1970-01-01T01:00:00Z</time>
      </trkpt>
      <trkpt lat="60.485003" lon="22.258438">
        <ele>30.2727</ele>
        <time>1970-01-01T01:00:00Z</time>
      </trkpt>
      <trkpt lat="60.484991" lon="22.258273">
        <ele>30.7273</ele>
        <time>1970-01-01T01:00:00Z</time>
      </trkpt>
      <trkpt lat="60.48493" lon="22.257999">
        <ele>31.1818</ele>
        <time>1970-01-01T01:00:00Z</time>
      </trkpt>
      <trkpt lat="60.484878" lon="22.257605">
        <ele>31.6364</ele>
        <time>1970-01-01T01:00:00Z</time>
      </trkpt>
      <trkpt lat="60.484743" lon="22.256932">
        <ele>32.0909</ele>
        <time>1970-01-01T01:00:00Z</time>
      </trkpt>
      <trkpt lat="60.4847" lon="22.256739">
        <ele>32.5455</ele>
        <time>1970-01-01T01:00:00Z</time>
      </trkpt>
      <trkpt lat="60.484648" lon="22.256562">
        <ele>33</ele>
        <time>1970-01-01T01:00:00Z</time>
      </trkpt>
      <trkpt lat="60.484595" lon="22.256435">
        <ele>33</ele>
        <time>1970-01-01T01:00:00Z</time>
      </trkpt>
      <trkpt lat="60.484483" lon="22.256221">
        <ele>33</ele>
        <time>1970-01-01T01:00:00Z</time>
      </trkpt>
      <trkpt lat="60.484154" lon="22.255601">
        <ele>33</ele>
        <time>1970-01-01T01:00:00Z</time>
      </trkpt>
      <trkpt lat="60.483916" lon="22.255169">
        <ele>33</ele>
        <time>1970-01-01T01:00:00Z</time>
      </trkpt>
      <trkpt lat="60.483846" lon="22.254981">
        <ele>33</ele>
        <time>1970-01-01T01:00:00Z</time>
      </trkpt>
      <trkpt lat="60.483767" lon="22.254578">
        <ele>32.2727</ele>
        <time>1970-01-01T01:00:00Z</time>
      </trkpt>
      <trkpt lat="60.483755" lon="22.254333">
        <ele>31.5455</ele>
        <time>1970-01-01T01:00:00Z</time>
      </trkpt>
      <trkpt lat="60.483694" lon="22.254131">
        <ele>30.8182</ele>
        <time>1970-01-01T01:00:00Z</time>
      </trkpt>
      <trkpt lat="60.483602" lon="22.254059">
        <ele>30.0909</ele>
        <time>1970-01-01T01:00:00Z</time>
      </trkpt>
      <trkpt lat="60.483368" lon="22.254116">
        <ele>29.3636</ele>
        <time>1970-01-01T01:00:00Z</time>
      </trkpt>
      <trkpt lat="60.483329" lon="22.254169">
        <ele>28.6364</ele>
        <time>1970-01-01T01:00:00Z</time>
      </trkpt>
      <trkpt lat="60.483256" lon="22.254282">
        <ele>27.9091</ele>
        <time>1970-01-01T01:00:00Z</time>
      </trkpt>
      <trkpt lat="60.483162" lon="22.254411">
        <ele>27.1818</ele>
        <time>1970-01-01T01:00:00Z</time>
      </trkpt>
      <trkpt lat="60.483035" lon="22.254503">
        <ele>26.4545</ele>
        <time>1970-01-01T01:00:00Z</time>
      </trkpt>
      <trkpt lat="60.482863" lon="22.254538">
        <ele>25.7273</ele>
        <time>1970-01-01T01:00:00Z</time>
      </trkpt>
      <trkpt lat="60.482731" lon="22.254572">
        <ele>25</ele>
        <time>1970-01-01T01:00:00Z</time>
      </trkpt>
      <trkpt lat="60.482613" lon="22.254595">
        <ele>25</ele>
        <time>1970-01-01T01:00:00Z</time>
      </trkpt>
      <trkpt lat="60.482522" lon="22.254576">
        <ele>25</ele>
        <time>1970-01-01T01:00:00Z</time>
      </trkpt>
      <trkpt lat="60.482492" lon="22.254568">
        <ele>25</ele>
        <time>1970-01-01T01:00:00Z</time>
      </trkpt>
      <trkpt lat="60.482364" lon="22.254619">
        <ele>25</ele>
        <time>1970-01-01T01:00:00Z</time>
      </trkpt>
      <trkpt lat="60.482314" lon="22.254628">
        <ele>25</ele>
        <time>1970-01-01T01:00:00Z</time>
      </trkpt>
      <trkpt lat="60.482213" lon="22.254627">
        <ele>25</ele>
        <time>1970-01-01T01:00:00Z</time>
      </trkpt>
      <trkpt lat="60.482163" lon="22.254635">
        <ele>25</ele>
        <time>1970-01-01T01:00:00Z</time>
      </trkpt>
      <trkpt lat="60.482025" lon="22.254718">
        <ele>25</ele>
        <time>1970-01-01T01:00:00Z</time>
      </trkpt>
      <trkpt lat="60.481996" lon="22.254719">
        <ele>25</ele>
        <time>1970-01-01T01:00:00Z</time>
      </trkpt>
      <trkpt lat="60.481815" lon="22.254609">
        <ele>25</ele>
        <time>1970-01-01T01:00:00Z</time>
      </trkpt>
      <trkpt lat="60.481595" lon="22.254366">
        <ele>25</ele>
        <time>1970-01-01T01:00:00Z</time>
      </trkpt>
      <trkpt lat="60.481383" lon="22.253857">
        <ele>25</ele>
        <time>1970-01-01T01:00:00Z</time>
      </trkpt>
      <trkpt lat="60.481388" lon="22.2535">
        <ele>25</ele>
        <time>1970-01-01T01:00:00Z</time>
      </trkpt>
      <trkpt lat="60.481412" lon="22.253396">
        <ele>25</ele>
        <time>1970-01-01T01:00:00Z</time>
      </trkpt>
      <trkpt lat="60.481458" lon="22.253242">
        <ele>25</ele>
        <time>1970-01-01T01:00:00Z</time>
      </trkpt>
      <trkpt lat="60.481612" lon="22.25295">
        <ele>25</ele>
        <time>1970-01-01T01:00:00Z</time>
      </trkpt>
      <trkpt lat="60.481648" lon="22.25288">
        <ele>25</ele>
        <time>1970-01-01T01:00:00Z</time>
      </trkpt>
      <trkpt lat="60.481744" lon="22.252565">
        <ele>25</ele>
        <time>1970-01-01T01:00:00Z</time>
      </trkpt>
      <trkpt lat="60.481924" lon="22.252378">
        <ele>25</ele>
        <time>1970-01-01T01:00:00Z</time>
      </trkpt>
      <trkpt lat="60.4821" lon="22.252372">
        <ele>25</ele>
        <time>1970-01-01T01:00:00Z</time>
      </trkpt>
      <trkpt lat="60.482241" lon="22.252312">
        <ele>25</ele>
        <time>1970-01-01T01:00:00Z</time>
      </trkpt>
      <trkpt lat="60.482422" lon="22.252174">
        <ele>25</ele>
        <time>1970-01-01T01:00:00Z</time>
      </trkpt>
      <trkpt lat="60.482549" lon="22.25205">
        <ele>25</ele>
        <time>1970-01-01T01:00:00Z</time>
      </trkpt>
      <trkpt lat="60.482685" lon="22.252173">
        <ele>25</ele>
        <time>1970-01-01T01:00:00Z</time>
      </trkpt>
      <trkpt lat="60.482791" lon="22.252352">
        <ele>25.7273</ele>
        <time>1970-01-01T01:00:00Z</time>
      </trkpt>
      <trkpt lat="60.482917" lon="22.252623">
        <ele>26.4545</ele>
        <time>1970-01-01T01:00:00Z</time>
      </trkpt>
      <trkpt lat="60.483069" lon="22.252695">
        <ele>27.1818</ele>
        <time>1970-01-01T01:00:00Z</time>
      </trkpt>
      <trkpt lat="60.4832" lon="22.252612">
        <ele>27.9091</ele>
        <time>1970-01-01T01:00:00Z</time>
      </trkpt>
      <trkpt lat="60.483257" lon="22.252557">
        <ele>28.6364</ele>
        <time>1970-01-01T01:00:00Z</time>
      </trkpt>
      <trkpt lat="60.483419" lon="22.252371">
        <ele>29.3636</ele>
        <time>1970-01-01T01:00:00Z</time>
      </trkpt>
      <trkpt lat="60.483528" lon="22.252187">
        <ele>30.0909</ele>
        <time>1970-01-01T01:00:00Z</time>
      </trkpt>
      <trkpt lat="60.48361" lon="22.251954">
        <ele>30.8182</ele>
        <time>1970-01-01T01:00:00Z</time>
      </trkpt>
      <trkpt lat="60.483602" lon="22.251724">
        <ele>30.8182</ele>
        <time>1970-01-01T01:00:00Z</time>
      </trkpt>
      <trkpt lat="60.483579" lon="22.251576">
        <ele>30.8182</ele>
        <time>1970-01-01T01:00:00Z</time>
      </trkpt>
      <trkpt lat="60.483536" lon="22.251467">
        <ele>30.8182</ele>
        <time>1970-01-01T01:00:00Z</time>
      </trkpt>
      <trkpt lat="60.48351" lon="22.251422">
        <ele>30.0909</ele>
        <time>1970-01-01T01:00:00Z</time>
      </trkpt>
      <trkpt lat="60.48343" lon="22.251313">
        <ele>29.3636</ele>
        <time>1970-01-01T01:00:00Z</time>
      </trkpt>
      <trkpt lat="60.483311" lon="22.251259">
        <ele>28.6364</ele>
        <time>1970-01-01T01:00:00Z</time>
      </trkpt>
      <trkpt lat="60.483162" lon="22.251381">
        <ele>27.9091</ele>
        <time>1970-01-01T01:00:00Z</time>
      </trkpt>
      <trkpt lat="60.483107" lon="22.251473">
        <ele>27.1818</ele>
        <time>1970-01-01T01:00:00Z</time>
      </trkpt>
      <trkpt lat="60.48299" lon="22.251656">
        <ele>26.4545</ele>
        <time>1970-01-01T01:00:00Z</time>
      </trkpt>
      <trkpt lat="60.482879" lon="22.251808">
        <ele>25.7273</ele>
        <time>1970-01-01T01:00:00Z</time>
      </trkpt>
      <trkpt lat="60.482732" lon="22.252007">
        <ele>25</ele>
        <time>1970-01-01T01:00:00Z</time>
      </trkpt>
      <trkpt lat="60.482581" lon="22.252054">
        <ele>25</ele>
        <time>1970-01-01T01:00:00Z</time>
      </trkpt>
      <trkpt lat="60.482392" lon="22.252147">
        <ele>25</ele>
        <time>1970-01-01T01:00:00Z</time>
      </trkpt>
      <trkpt lat="60.482192" lon="22.252394">
        <ele>25</ele>
        <time>1970-01-01T01:00:00Z</time>
      </trkpt>
      <trkpt lat="60.482055" lon="22.252421">
        <ele>25</ele>
        <time>1970-01-01T01:00:00Z</time>
      </trkpt>
      <trkpt lat="60.481974" lon="22.252226">
        <ele>25</ele>
        <time>1970-01-01T01:00:00Z</time>
      </trkpt>
      <trkpt lat="60.481923" lon="22.252001">
        <ele>25</ele>
        <time>1970-01-01T01:00:00Z</time>
      </trkpt>
      <trkpt lat="60.481873" lon="22.251816">
        <ele>25</ele>
        <time>1970-01-01T01:00:00Z</time>
      </trkpt>
      <trkpt lat="60.481857" lon="22.251733">
        <ele>25</ele>
        <time>1970-01-01T01:00:00Z</time>
      </trkpt>
      <trkpt lat="60.481788" lon="22.251481">
        <ele>25</ele>
        <time>1970-01-01T01:00:00Z</time>
      </trkpt>
      <trkpt lat="60.481631" lon="22.251296">
        <ele>25</ele>
        <time>1970-01-01T01:00:00Z</time>
      </trkpt>
      <trkpt lat="60.48154" lon="22.251354">
        <ele>25</ele>
        <time>1970-01-01T01:00:00Z</time>
      </trkpt>
      <trkpt lat="60.481429" lon="22.251489">
        <ele>25</ele>
        <time>1970-01-01T01:00:00Z</time>
      </trkpt>
      <trkpt lat="60.481312" lon="22.251614">
        <ele>25</ele>
        <time>1970-01-01T01:00:00Z</time>
      </trkpt>
      <trkpt lat="60.481278" lon="22.251654">
        <ele>25</ele>
        <time>1970-01-01T01:00:00Z</time>
      </trkpt>
      <trkpt lat="60.481032" lon="22.251894">
        <ele>25</ele>
        <time>1970-01-01T01:00:00Z</time>
      </trkpt>
      <trkpt lat="60.480951" lon="22.251964">
        <ele>25</ele>
        <time>1970-01-01T01:00:00Z</time>
      </trkpt>
      <trkpt lat="60.480766" lon="22.252155">
        <ele>25</ele>
        <time>1970-01-01T01:00:00Z</time>
      </trkpt>
      <trkpt lat="60.480596" lon="22.252331">
        <ele>25</ele>
        <time>1970-01-01T01:00:00Z</time>
      </trkpt>
      <trkpt lat="60.480388" lon="22.252567">
        <ele>25</ele>
        <time>1970-01-01T01:00:00Z</time>
      </trkpt>
      <trkpt lat="60.480258" lon="22.25276">
        <ele>25</ele>
        <time>1970-01-01T01:00:00Z</time>
      </trkpt>
      <trkpt lat="60.480225" lon="22.2528">
        <ele>25</ele>
        <time>1970-01-01T01:00:00Z</time>
      </trkpt>
      <trkpt lat="60.480151" lon="22.252862">
        <ele>25</ele>
        <time>1970-01-01T01:00:00Z</time>
      </trkpt>
      <trkpt lat="60.480082" lon="22.252946">
        <ele>25</ele>
        <time>1970-01-01T01:00:00Z</time>
      </trkpt>
      <trkpt lat="60.480055" lon="22.252995">
        <ele>25</ele>
        <time>1970-01-01T01:00:00Z</time>
      </trkpt>
      <trkpt lat="60.480027" lon="22.253044">
        <ele>25</ele>
        <time>1970-01-01T01:00:00Z</time>
      </trkpt>
      <trkpt lat="60.479998" lon="22.253098">
        <ele>25</ele>
        <time>1970-01-01T01:00:00Z</time>
      </trkpt>
      <trkpt lat="60.47998" lon="22.25325">
        <ele>25</ele>
        <time>1970-01-01T01:00:00Z</time>
      </trkpt>
      <trkpt lat="60.479983" lon="22.253325">
        <ele>25</ele>
        <time>1970-01-01T01:00:00Z</time>
      </trkpt>
      <trkpt lat="60.480043" lon="22.253539">
        <ele>25</ele>
        <time>1970-01-01T01:00:00Z</time>
      </trkpt>
      <trkpt lat="60.48019" lon="22.253658">
        <ele>25</ele>
        <time>1970-01-01T01:00:00Z</time>
      </trkpt>
      <trkpt lat="60.480271" lon="22.253627">
        <ele>25</ele>
        <time>1970-01-01T01:00:00Z</time>
      </trkpt>
      <trkpt lat="60.480425" lon="22.253518">
        <ele>25</ele>
        <time>1970-01-01T01:00:00Z</time>
      </trkpt>
      <trkpt lat="60.480612" lon="22.253347">
        <ele>25</ele>
        <time>1970-01-01T01:00:00Z</time>
      </trkpt>
      <trkpt lat="60.480727" lon="22.253299">
        <ele>25</ele>
        <time>1970-01-01T01:00:00Z</time>
      </trkpt>
      <trkpt lat="60.48087" lon="22.253423">
        <ele>25</ele>
        <time>1970-01-01T01:00:00Z</time>
      </trkpt>
      <trkpt lat="60.480937" lon="22.253522">
        <ele>25</ele>
        <time>1970-01-01T01:00:00Z</time>
      </trkpt>
      <trkpt lat="60.481026" lon="22.253601">
        <ele>25</ele>
        <time>1970-01-01T01:00:00Z</time>
      </trkpt>
      <trkpt lat="60.4811" lon="22.25368">
        <ele>25</ele>
        <time>1970-01-01T01:00:00Z</time>
      </trkpt>
      <trkpt lat="60.481211" lon="22.253809">
        <ele>25</ele>
        <time>1970-01-01T01:00:00Z</time>
      </trkpt>
      <trkpt lat="60.481313" lon="22.253961">
        <ele>25</ele>
        <time>1970-01-01T01:00:00Z</time>
      </trkpt>
      <trkpt lat="60.481353" lon="22.254038">
        <ele>25</ele>
        <time>1970-01-01T01:00:00Z</time>
      </trkpt>
      <trkpt lat="60.481415" lon="22.254148">
        <ele>25</ele>
        <time>1970-01-01T01:00:00Z</time>
      </trkpt>
      <trkpt lat="60.48145" lon="22.254208">
        <ele>25</ele>
        <time>1970-01-01T01:00:00Z</time>
      </trkpt>
      <trkpt lat="60.481502" lon="22.254484">
        <ele>25</ele>
        <time>1970-01-01T01:00:00Z</time>
      </trkpt>
      <trkpt lat="60.481497" lon="22.254537">
        <ele>25</ele>
        <time>1970-01-01T01:00:00Z</time>
      </trkpt>
      <trkpt lat="60.481479" lon="22.254638">
        <ele>25</ele>
        <time>1970-01-01T01:00:00Z</time>
      </trkpt>
      <trkpt lat="60.481289" lon="22.254887">
        <ele>25</ele>
        <time>1970-01-01T01:00:00Z</time>
      </trkpt>
      <trkpt lat="60.481173" lon="22.255061">
        <ele>25</ele>
        <time>1970-01-01T01:00:00Z</time>
      </trkpt>
      <trkpt lat="60.480996" lon="22.255233">
        <ele>25</ele>
        <time>1970-01-01T01:00:00Z</time>
      </trkpt>
      <trkpt lat="60.480861" lon="22.25531">
        <ele>25</ele>
        <time>1970-01-01T01:00:00Z</time>
      </trkpt>
      <trkpt lat="60.480842" lon="22.255321">
        <ele>25</ele>
        <time>1970-01-01T01:00:00Z</time>
      </trkpt>
      <trkpt lat="60.480788" lon="22.255382">
        <ele>25</ele>
        <time>1970-01-01T01:00:00Z</time>
      </trkpt>
      <trkpt lat="60.480743" lon="22.255539">
        <ele>25</ele>
        <time>1970-01-01T01:00:00Z</time>
      </trkpt>
      <trkpt lat="60.480721" lon="22.255716">
        <ele>25</ele>
        <time>1970-01-01T01:00:00Z</time>
      </trkpt>
      <trkpt lat="60.480761" lon="22.255969">
        <ele>25</ele>
        <time>1970-01-01T01:00:00Z</time>
      </trkpt>
      <trkpt lat="60.48077" lon="22.255999">
        <ele>25</ele>
        <time>1970-01-01T01:00:00Z</time>
      </trkpt>
      <trkpt lat="60.480892" lon="22.256222">
        <ele>25</ele>
        <time>1970-01-01T01:00:00Z</time>
      </trkpt>
      <trkpt lat="60.480987" lon="22.256381">
        <ele>25</ele>
        <time>1970-01-01T01:00:00Z</time>
      </trkpt>
      <trkpt lat="60.481094" lon="22.25649">
        <ele>25</ele>
        <time>1970-01-01T01:00:00Z</time>
      </trkpt>
      <trkpt lat="60.481112" lon="22.256523">
        <ele>25</ele>
        <time>1970-01-01T01:00:00Z</time>
      </trkpt>
      <trkpt lat="60.481129" lon="22.256554">
        <ele>25</ele>
        <time>1970-01-01T01:00:00Z</time>
      </trkpt>
      <trkpt lat="60.481193" lon="22.256693">
        <ele>25</ele>
        <time>1970-01-01T01:00:00Z</time>
      </trkpt>
      <trkpt lat="60.481218" lon="22.256773">
        <ele>25</ele>
        <time>1970-01-01T01:00:00Z</time>
      </trkpt>
      <trkpt lat="60.481246" lon="22.257045">
        <ele>24.9091</ele>
        <time>1970-01-01T01:00:00Z</time>
      </trkpt>
      <trkpt lat="60.481236" lon="22.257419">
        <ele>24.8182</ele>
        <time>1970-01-01T01:00:00Z</time>
      </trkpt>
      <trkpt lat="60.481192" lon="22.257669">
        <ele>24.7273</ele>
        <time>1970-01-01T01:00:00Z</time>
      </trkpt>
      <trkpt lat="60.48115" lon="22.257932">
        <ele>24.6364</ele>
        <time>1970-01-01T01:00:00Z</time>
      </trkpt>
      <trkpt lat="60.481107" lon="22.258163">
        <ele>24.5455</ele>
        <time>1970-01-01T01:00:00Z</time>
      </trkpt>
      <trkpt lat="60.481106" lon="22.258552">
        <ele>24.4545</ele>
        <time>1970-01-01T01:00:00Z</time>
      </trkpt>
      <trkpt lat="60.481152" lon="22.258978">
        <ele>24.3636</ele>
        <time>1970-01-01T01:00:00Z</time>
      </trkpt>
      <trkpt lat="60.481153" lon="22.259436">
        <ele>24.2727</ele>
        <time>1970-01-01T01:00:00Z</time>
      </trkpt>
      <trkpt lat="60.481131" lon="22.259762">
        <ele>24.1818</ele>
        <time>1970-01-01T01:00:00Z</time>
      </trkpt>
      <trkpt lat="60.481156" lon="22.260068">
        <ele>24.0909</ele>
        <time>1970-01-01T01:00:00Z</time>
      </trkpt>
      <trkpt lat="60.481183" lon="22.260228">
        <ele>24</ele>
        <time>1970-01-01T01:00:00Z</time>
      </trkpt>
      <trkpt lat="60.481261" lon="22.260573">
        <ele>24</ele>
        <time>1970-01-01T01:00:00Z</time>
      </trkpt>
      <trkpt lat="60.481301" lon="22.260843">
        <ele>24</ele>
        <time>1970-01-01T01:00:00Z</time>
      </trkpt>
      <trkpt lat="60.481358" lon="22.261238">
        <ele>24</ele>
        <time>1970-01-01T01:00:00Z</time>
      </trkpt>
      <trkpt lat="60.48144" lon="22.261614">
        <ele>24</ele>
        <time>1970-01-01T01:00:00Z</time>
      </trkpt>
      <trkpt lat="60.481499" lon="22.261881">
        <ele>24</ele>
        <time>1970-01-01T01:00:00Z</time>
      </trkpt>
      <trkpt lat="60.481689" lon="22.262375">
        <ele>24</ele>
        <time>1970-01-01T01:00:00Z</time>
      </trkpt>
      <trkpt lat="60.481759" lon="22.262662">
        <ele>24</ele>
        <time>1970-01-01T01:00:00Z</time>
      </trkpt>
      <trkpt lat="60.481794" lon="22.262764">
        <ele>24</ele>
        <time>1970-01-01T01:00:00Z</time>
      </trkpt>
      <trkpt lat="60.481885" lon="22.262946">
        <ele>24</ele>
        <time>1970-01-01T01:00:00Z</time>
      </trkpt>
      <trkpt lat="60.482058" lon="22.263138">
        <ele>24</ele>
        <time>1970-01-01T01:00:00Z</time>
      </trkpt>
      <trkpt lat="60.482221" lon="22.263265">
        <ele>24</ele>
        <time>1970-01-01T01:00:00Z</time>
      </trkpt>
      <trkpt lat="60.482399" lon="22.26351">
        <ele>24</ele>
        <time>1970-01-01T01:00:00Z</time>
      </trkpt>
      <trkpt lat="60.482436" lon="22.263558">
        <ele>24</ele>
        <time>1970-01-01T01:00:00Z</time>
      </trkpt>
      <trkpt lat="60.482529" lon="22.263631">
        <ele>24</ele>
        <time>1970-01-01T01:00:00Z</time>
      </trkpt>
      <trkpt lat="60.482609" lon="22.26368">
        <ele>24</ele>
        <time>1970-01-01T01:00:00Z</time>
      </trkpt>
      <trkpt lat="60.482747" lon="22.263705">
        <ele>24.3636</ele>
        <time>1970-01-01T01:00:00Z</time>
      </trkpt>
      <trkpt lat="60.482885" lon="22.263632">
        <ele>24.7273</ele>
        <time>1970-01-01T01:00:00Z</time>
      </trkpt>
      <trkpt lat="60.483018" lon="22.263529">
        <ele>25.0909</ele>
        <time>1970-01-01T01:00:00Z</time>
      </trkpt>
      <trkpt lat="60.483142" lon="22.263402">
        <ele>25.4545</ele>
        <time>1970-01-01T01:00:00Z</time>
      </trkpt>
      <trkpt lat="60.483239" lon="22.26331">
        <ele>25.8182</ele>
        <time>1970-01-01T01:00:00Z</time>
      </trkpt>
      <trkpt lat="60.483353" lon="22.263267">
        <ele>26.1818</ele>
        <time>1970-01-01T01:00:00Z</time>
      </trkpt>
      <trkpt lat="60.483522" lon="22.263185">
        <ele>26.5455</ele>
        <time>1970-01-01T01:00:00Z</time>
      </trkpt>
      <trkpt lat="60.48369" lon="22.263055">
        <ele>26.9091</ele>
        <time>1970-01-01T01:00:00Z</time>
      </trkpt>
      <trkpt lat="60.483785" lon="22.263024">
        <ele>27.2727</ele>
        <time>1970-01-01T01:00:00Z</time>
      </trkpt>
      <trkpt lat="60.483865" lon="22.262971">
        <ele>27.6364</ele>
        <time>1970-01-01T01:00:00Z</time>
      </trkpt>
      <trkpt lat="60.483981" lon="22.26294">
        <ele>28</ele>
        <time>1970-01-01T01:00:00Z</time>
      </trkpt>
      <trkpt lat="60.484003" lon="22.262928">
        <ele>28</ele>
        <time>1970-01-01T01:00:00Z</time>
      </trkpt>
      <trkpt lat="60.484068" lon="22.262901">
        <ele>28</ele>
        <time>1970-01-01T01:00:00Z</time>
      </trkpt>
      <trkpt lat="60.48414" lon="22.262884">
        <ele>28</ele>
        <time>1970-01-01T01:00:00Z</time>
      </trkpt>
      <trkpt lat="60.484259" lon="22.262882">
        <ele>28</ele>
        <time>1970-01-01T01:00:00Z</time>
      </trkpt>
      <trkpt lat="60.484359" lon="22.262887">
        <ele>28</ele>
        <time>1970-01-01T01:00:00Z</time>
      </trkpt>
      <trkpt lat="60.484504" lon="22.262856">
        <ele>28</ele>
        <time>1970-01-01T01:00:00Z</time>
      </trkpt>
      <trkpt lat="60.484674" lon="22.262852">
        <ele>28</ele>
        <time>1970-01-01T01:00:00Z</time>
      </trkpt>
      <trkpt lat="60.484791" lon="22.262811">
        <ele>28</ele>
        <time>1970-01-01T01:00:00Z</time>
      </trkpt>
      <trkpt lat="60.484915" lon="22.262785">
        <ele>28</ele>
        <time>1970-01-01T01:00:00Z</time>
      </trkpt>
      <trkpt lat="60.485037" lon="22.262719">
        <ele>28</ele>
        <time>1970-01-01T01:00:00Z</time>
      </trkpt>
      <trkpt lat="60.485171" lon="22.262621">
        <ele>28</ele>
        <time>1970-01-01T01:00:00Z</time>
      </trkpt>
      <trkpt lat="60.485294" lon="22.262453">
        <ele>28</ele>
        <time>1970-01-01T01:00:00Z</time>
      </trkpt>
      <trkpt lat="60.485333" lon="22.262181">
        <ele>28</ele>
        <time>1970-01-01T01:00:00Z</time>
      </trkpt>
      <trkpt lat="60.485333" lon="22.261862">
        <ele>28</ele>
        <time>1970-01-01T01:00:00Z</time>
      </trkpt>
      <trkpt lat="60.485336" lon="22.261527">
        <ele>28</ele>
        <time>1970-01-01T01:00:00Z</time>
      </trkpt>
      <trkpt lat="60.485345" lon="22.261258">
        <ele>28</ele>
        <time>1970-01-01T01:00:00Z</time>
      </trkpt>
      <trkpt lat="60.485285" lon="22.260955">
        <ele>28</ele>
        <time>1970-01-01T01:00:00Z</time>
      </trkpt>
      <trkpt lat="60.485239" lon="22.260728">
        <ele>28</ele>
        <time>1970-01-01T01:00:00Z</time>
      </trkpt>
      <trkpt lat="60.485177" lon="22.260506">
        <ele>28</ele>
        <time>1970-01-01T01:00:00Z</time>
      </trkpt>
      <trkpt lat="60.485166" lon="22.260332">
        <ele>28</ele>
        <time>1970-01-01T01:00:00Z</time>
      </trkpt>
      <trkpt lat="60.48516" lon="22.260256">
        <ele>28</ele>
        <time>1970-01-01T01:00:00Z</time>
      </trkpt>
      <trkpt lat="60.485112" lon="22.259882">
        <ele>28</ele>
        <time>1970-01-01T01:00:00Z</time>
      </trkpt>
      <trkpt lat="60.485068" lon="22.259547">
        <ele>28</ele>
        <time>1970-01-01T01:00:00Z</time>
      </trkpt>
      <trkpt lat="60.485045" lon="22.259446">
        <ele>28.4545</ele>
        <time>1970-01-01T01:00:00Z</time>
      </trkpt>
      <trkpt lat="60.48503" lon="22.259164">
        <ele>28.9091</ele>
        <time>1970-01-01T01:00:00Z</time>
      </trkpt>
      <trkpt lat="60.485032" lon="22.258927">
        <ele>29.3636</ele>
        <time>1970-01-01T01:00:00Z</time>
      </trkpt>
      <trkpt lat="60.485021" lon="22.258791">
        <ele>29.8182</ele>
        <time>1970-01-01T01:00:00Z</time>
      </trkpt>
      <trkpt lat="60.485008" lon="22.258737">
        <ele>30.2727</ele>
        <time>1970-01-01T01:00:00Z</time>
      </trkpt>
      <trkpt lat="60.484989" lon="22.258425">
        <ele>30.7273</ele>
        <time>1970-01-01T01:00:00Z</time>
      </trkpt>
      <trkpt lat="60.484922" lon="22.258142">
        <ele>31.1818</ele>
        <time>1970-01-01T01:00:00Z</time>
      </trkpt>
      <trkpt lat="60.484868" lon="22.257929">
        <ele>31.6364</ele>
        <time>1970-01-01T01:00:00Z</time>
      </trkpt>
      <trkpt lat="60.484818" lon="22.257692">
        <ele>32.0909</ele>
        <time>1970-01-01T01:00:00Z</time>
      </trkpt>
      <trkpt lat="60.484756" lon="22.257308">
        <ele>32.5455</ele>
        <time>1970-01-01T01:00:00Z</time>
      </trkpt>
      <trkpt lat="60.484653" lon="22.256771">
        <ele>33</ele>
        <time>1970-01-01T01:00:00Z</time>
      </trkpt>
      <trkpt lat="60.484638" lon="22.256695">
        <ele>33</ele>
        <time>1970-01-01T01:00:00Z</time>
      </trkpt>
      <trkpt lat="60.484507" lon="22.256237">
        <ele>33</ele>
        <time>1970-01-01T01:00:00Z</time>
      </trkpt>
      <trkpt lat="60.484369" lon="22.255983">
        <ele>33</ele>
        <time>1970-01-01T01:00:00Z</time>
      </trkpt>
      <trkpt lat="60.484131" lon="22.255554">
        <ele>33</ele>
        <time>1970-01-01T01:00:00Z</time>
      </trkpt>
      <trkpt lat="60.483939" lon="22.25523">
        <ele>33</ele>
        <time>1970-01-01T01:00:00Z</time>
      </trkpt>
      <trkpt lat="60.483808" lon="22.254781">
        <ele>33</ele>
        <time>1970-01-01T01:00:00Z</time>
      </trkpt>
      <trkpt lat="60.483789" lon="22.254684">
        <ele>32.2727</ele>
        <time>1970-01-01T01:00:00Z</time>
      </trkpt>
      <trkpt lat="60.483742" lon="22.254265">
        <ele>31.5455</ele>
        <time>1970-01-01T01:00:00Z</time>
      </trkpt>
      <trkpt lat="60.483614" lon="22.254131">
        <ele>30.8182</ele>
        <time>1970-01-01T01:00:00Z</time>
      </trkpt>
      <trkpt lat="60.483455" lon="22.254161">
        <ele>30.0909</ele>
        <time>1970-01-01T01:00:00Z</time>
      </trkpt>
      <trkpt lat="60.483426" lon="22.254192">
        <ele>29.3636</ele>
        <time>1970-01-01T01:00:00Z</time>
      </trkpt>
      <trkpt lat="60.483342" lon="22.254289">
        <ele>28.6364</ele>
        <time>1970-01-01T01:00:00Z</time>
      </trkpt>
      <trkpt lat="60.483277" lon="22.254334">
        <ele>27.9091</ele>
        <time>1970-01-01T01:00:00Z</time>
      </trkpt>
      <trkpt lat="60.483106" lon="22.254443">
        <ele>27.1818</ele>
        <time>1970-01-01T01:00:00Z</time>
      </trkpt>
      <trkpt lat="60.482986" lon="22.254504">
        <ele>26.4545</ele>
        <time>1970-01-01T01:00:00Z</time>
      </trkpt>
      <trkpt lat="60.482839" lon="22.254523">
        <ele>25.7273</ele>
        <time>1970-01-01T01:00:00Z</time>
      </trkpt>
      <trkpt lat="60.482735" lon="22.254523">
        <ele>25</ele>
        <time>1970-01-01T01:00:00Z</time>
      </trkpt>
      <trkpt lat="60.482609" lon="22.254549">
        <ele>25</ele>
        <time>1970-01-01T01:00:00Z</time>
      </trkpt>
      <trkpt lat="60.482466" lon="22.254544">
        <ele>25</ele>
        <time>1970-01-01T01:00:00Z</time>
      </trkpt>
      <trkpt lat="60.48236" lon="22.254555">
        <ele>25</ele>
        <time>1970-01-01T01:00:00Z</time>
      </trkpt>
      <trkpt lat="60.482274" lon="22.254591">
        <ele>25</ele>
        <time>1970-01-01T01:00:00Z</time>
      </trkpt>
      <trkpt lat="60.482203" lon="22.254598">
        <ele>25</ele>
        <time>1970-01-01T01:00:00Z</time>
      </trkpt>
      <trkpt lat="60.482156" lon="22.254629">
        <ele>25</ele>
        <time>1970-01-01T01:00:00Z</time>
      </trkpt>
      <trkpt lat="60.48208" lon="22.254649">
        <ele>25</ele>
        <time>1970-01-01T01:00:00Z</time>
      </trkpt>
      <trkpt lat="60.482058" lon="22.25466">
        <ele>25</ele>
        <time>1970-01-01T01:00:00Z</time>
      </trkpt>
      <trkpt lat="60.4819" lon="22.254651">
        <ele>25</ele>
        <time>1970-01-01T01:00:00Z</time>
      </trkpt>
      <trkpt lat="60.481763" lon="22.25457">
        <ele>25</ele>
        <time>1970-01-01T01:00:00Z</time>
      </trkpt>
      <trkpt lat="60.481548" lon="22.254288">
        <ele>25</ele>
        <time>1970-01-01T01:00:00Z</time>
      </trkpt>
      <trkpt lat="60.481462" lon="22.254118">
        <ele>25</ele>
        <time>1970-01-01T01:00:00Z</time>
      </trkpt>
      <trkpt lat="60.481356" lon="22.253649">
        <ele>25</ele>
        <time>1970-01-01T01:00:00Z</time>
      </trkpt>
      <trkpt lat="60.481431" lon="22.253349">
        <ele>25</ele>
        <time>1970-01-01T01:00:00Z</time>
      </trkpt>
      <trkpt lat="60.481507" lon="22.253081">
        <ele>25</ele>
        <time>1970-01-01T01:00:00Z</time>
      </trkpt>
      <trkpt lat="60.481591" lon="22.252845">
        <ele>25</ele>
        <time>1970-01-01T01:00:00Z</time>
      </trkpt>
      <trkpt lat="60.481656" lon="22.252702">
        <ele>25</ele>
        <time>1970-01-01T01:00:00Z</time>
      </trkpt>
      <trkpt lat="60.481744" lon="22.252472">
        <ele>25</ele>
        <time>1970-01-01T01:00:00Z</time>
      </trkpt>
      <trkpt lat="60.481877" lon="22.252387">
        <ele>25</ele>
        <time>1970-01-01T01:00:00Z</time>
      </trkpt>
      <trkpt lat="60.482063" lon="22.252434">
        <ele>25</ele>
        <time>1970-01-01T01:00:00Z</time>
      </trkpt>
      <trkpt lat="60.482162" lon="22.252436">
        <ele>25</ele>
        <time>1970-01-01T01:00:00Z</time>
      </trkpt>
      <trkpt lat="60.48228" lon="22.252394">
        <ele>25</ele>
        <time>1970-01-01T01:00:00Z</time>
      </trkpt>
      <trkpt lat="60.482465" lon="22.252204">
        <ele>25</ele>
        <time>1970-01-01T01:00:00Z</time>
      </trkpt>
      <trkpt lat="60.482493" lon="22.25216">
        <ele>25</ele>
        <time>1970-01-01T01:00:00Z</time>
      </trkpt>
      <trkpt lat="60.482614" lon="22.252114">
        <ele>25</ele>
        <time>1970-01-01T01:00:00Z</time>
      </trkpt>
      <trkpt lat="60.482704" lon="22.252267">
        <ele>25</ele>
        <time>1970-01-01T01:00:00Z</time>
      </trkpt>
      <trkpt lat="60.482782" lon="22.252395">
        <ele>25.7273</ele>
        <time>1970-01-01T01:00:00Z</time>
      </trkpt>
      <trkpt lat="60.482856" lon="22.252601">
        <ele>26.4545</ele>
        <time>1970-01-01T01:00:00Z</time>
      </trkpt>
      <trkpt lat="60.483016" lon="22.252736">
        <ele>27.1818</ele>
        <time>1970-01-01T01:00:00Z</time>
      </trkpt>
      <trkpt lat="60.48316" lon="22.252667">
        <ele>27.9091</ele>
        <time>1970-01-01T01:00:00Z</time>
      </trkpt>
      <trkpt lat="60.483314" lon="22.252557">
        <ele>28.6364</ele>
        <time>1970-01-01T01:00:00Z</time>
      </trkpt>
      <trkpt lat="60.483432" lon="22.2524">
        <ele>29.3636</ele>
        <time>1970-01-01T01:00:00Z</time>
      </trkpt>
      <trkpt lat="60.483557" lon="22.252237">
        <ele>29.3636</ele>
        <time>1970-01-01T01:00:00Z</time>
      </trkpt>
      <trkpt lat="60.483609" lon="22.252158">
        <ele>29.3636</ele>
        <time>1970-01-01T01:00:00Z</time>
      </trkpt>
      <trkpt lat="60.483632" lon="22.251874">
        <ele>29.3636</ele>
        <time>1970-01-01T01:00:00Z</time>
      </trkpt>
      <trkpt lat="60.483606" lon="22.251624">
        <ele>29.3636</ele>
        <time>1970-01-01T01:00:00Z</time>
      </trkpt>
      <trkpt lat="60.483481" lon="22.251342">
        <ele>29.3636</ele>
        <time>1970-01-01T01:00:00Z</time>
      </trkpt>
      <trkpt lat="60.4833" lon="22.251223">
        <ele>28.6364</ele>
        <time>1970-01-01T01:00:00Z</time>
      </trkpt>
      <trkpt lat="60.483139" lon="22.251341">
        <ele>27.9091</ele>
        <time>1970-01-01T01:00:00Z</time>
      </trkpt>
      <trkpt lat="60.483034" lon="22.25147">
        <ele>27.1818</ele>
        <time>1970-01-01T01:00:00Z</time>
      </trkpt>
      <trkpt lat="60.48283" lon="22.251752">
        <ele>26.4545</ele>
        <time>1970-01-01T01:00:00Z</time>
      </trkpt>
      <trkpt lat="60.482692" lon="22.251898">
        <ele>25.7273</ele>
        <time>1970-01-01T01:00:00Z</time>
      </trkpt>
      <trkpt lat="60.482553" lon="22.252093">
        <ele>25</ele>
        <time>1970-01-01T01:00:00Z</time>
      </trkpt>
      <trkpt lat="60.482411" lon="22.25214">
        <ele>25</ele>
        <time>1970-01-01T01:00:00Z</time>
      </trkpt>
      <trkpt lat="60.482289" lon="22.252215">
        <ele>25</ele>
        <time>1970-01-01T01:00:00Z</time>
      </trkpt>
      <trkpt lat="60.482227" lon="22.252314">
        <ele>25</ele>
        <time>1970-01-01T01:00:00Z</time>
      </trkpt>
      <trkpt lat="60.482128" lon="22.252459">
        <ele>25</ele>
        <time>1970-01-01T01:00:00Z</time>
      </trkpt>
      <trkpt lat="60.482104" lon="22.252485">
        <ele>25</ele>
        <time>1970-01-01T01:00:00Z</time>
      </trkpt>
      <trkpt lat="60.482055" lon="22.252474">
        <ele>25</ele>
        <time>1970-01-01T01:00:00Z</time>
      </trkpt>
      <trkpt lat="60.481984" lon="22.252369">
        <ele>25</ele>
        <time>1970-01-01T01:00:00Z</time>
      </trkpt>
      <trkpt lat="60.481913" lon="22.25207">
        <ele>25</ele>
        <time>1970-01-01T01:00:00Z</time>
      </trkpt>
      <trkpt lat="60.48184" lon="22.251812">
        <ele>25</ele>
        <time>1970-01-01T01:00:00Z</time>
      </trkpt>
      <trkpt lat="60.481747" lon="22.25158">
        <ele>25</ele>
        <time>1970-01-01T01:00:00Z</time>
      </trkpt>
      <trkpt lat="60.481576" lon="22.251463">
        <ele>25</ele>
        <time>1970-01-01T01:00:00Z</time>
      </trkpt>
      <trkpt lat="60.481504" lon="22.251518">
        <ele>25</ele>
        <time>1970-01-01T01:00:00Z</time>
      </trkpt>
      <trkpt lat="60.481398" lon="22.251658">
        <ele>25</ele>
        <time>1970-01-01T01:00:00Z</time>
      </trkpt>
      <trkpt lat="60.48129" lon="22.25178">
        <ele>25</ele>
        <time>1970-01-01T01:00:00Z</time>
      </trkpt>
      <trkpt lat="60.481194" lon="22.251891">
        <ele>25</ele>
        <time>1970-01-01T01:00:00Z</time>
      </trkpt>
      <trkpt lat="60.481091" lon="22.252001">
        <ele>25</ele>
        <time>1970-01-01T01:00:00Z</time>
      </trkpt>
      <trkpt lat="60.481056" lon="22.252035">
        <ele>25</ele>
        <time>1970-01-01T01:00:00Z</time>
      </trkpt>
      <trkpt lat="60.480844" lon="22.252157">
        <ele>25</ele>
        <time>1970-01-01T01:00:00Z</time>
      </trkpt>
      <trkpt lat="60.480659" lon="22.252327">
        <ele>25</ele>
        <time>1970-01-01T01:00:00Z</time>
      </trkpt>
      <trkpt lat="60.480578" lon="22.252393">
        <ele>25</ele>
        <time>1970-01-01T01:00:00Z</time>
      </trkpt>
      <trkpt lat="60.480541" lon="22.25242">
        <ele>25</ele>
        <time>1970-01-01T01:00:00Z</time>
      </trkpt>
      <trkpt lat="60.480411" lon="22.252557">
        <ele>25</ele>
        <time>1970-01-01T01:00:00Z</time>
      </trkpt>
      <trkpt lat="60.480252" lon="22.252755">
        <ele>25</ele>
        <time>1970-01-01T01:00:00Z</time>
      </trkpt>
      <trkpt lat="60.480126" lon="22.252883">
        <ele>25</ele>
        <time>1970-01-01T01:00:00Z</time>
      </trkpt>
      <trkpt lat="60.480002" lon="22.253072">
        <ele>25</ele>
        <time>1970-01-01T01:00:00Z</time>
      </trkpt>
      <trkpt lat="60.479973" lon="22.253128">
        <ele>25</ele>
        <time>1970-01-01T01:00:00Z</time>
      </trkpt>
      <trkpt lat="60.479956" lon="22.25346">
        <ele>25</ele>
        <time>1970-01-01T01:00:00Z</time>
      </trkpt>
      <trkpt lat="60.480061" lon="22.253593">
        <ele>25</ele>
        <time>1970-01-01T01:00:00Z</time>
      </trkpt>
      <trkpt lat="60.480199" lon="22.253634">
        <ele>25</ele>
        <time>1970-01-01T01:00:00Z</time>
      </trkpt>
      <trkpt lat="60.480284" lon="22.253588">
        <ele>25</ele>
        <time>1970-01-01T01:00:00Z</time>
      </trkpt>
      <trkpt lat="60.480455" lon="22.253443">
        <ele>25</ele>
        <time>1970-01-01T01:00:00Z</time>
      </trkpt>
      <trkpt lat="60.48064" lon="22.253361">
        <ele>25</ele>
        <time>1970-01-01T01:00:00Z</time>
      </trkpt>
      <trkpt lat="60.480726" lon="22.25333">
        <ele>25</ele>
        <time>1970-01-01T01:00:00Z</time>
      </trkpt>
      <trkpt lat="60.480822" lon="22.2534">
        <ele>25</ele>
        <time>1970-01-01T01:00:00Z</time>
      </trkpt>
      <trkpt lat="60.480895" lon="22.253474">
        <ele>25</ele>
        <time>1970-01-01T01:00:00Z</time>
      </trkpt>
      <trkpt lat="60.48094" lon="22.253514">
        <ele>25</ele>
        <time>1970-01-01T01:00:00Z</time>
      </trkpt>
      <trkpt lat="60.480978" lon="22.253543">
        <ele>25</ele>
        <time>1970-01-01T01:00:00Z</time>
      </trkpt>
      <trkpt lat="60.481018" lon="22.2536">
        <ele>25</ele>
        <time>1970-01-01T01:00:00Z</time>
      </trkpt>
      <trkpt lat="60.481119" lon="22.253682">
        <ele>25</ele>
        <time>1970-01-01T01:00:00Z</time>
      </trkpt>
      <trkpt lat="60.481226" lon="22.253832">
        <ele>25</ele>
        <time>1970-01-01T01:00:00Z</time>
      </trkpt>
      <trkpt lat="60.481264" lon="22.253902">
        <ele>25</ele>
        <time>1970-01-01T01:00:00Z</time>
      </trkpt>
      <trkpt lat="60.481284" lon="22.253934">
        <ele>25</ele>
        <time>1970-01-01T01:00:00Z</time>
      </trkpt>
      <trkpt lat="60.48132" lon="22.253995">
        <ele>25</ele>
        <time>1970-01-01T01:00:00Z</time>
      </trkpt>
      <trkpt lat="60.481417" lon="22.254175">
        <ele>25</ele>
        <time>1970-01-01T01:00:00Z</time>
      </trkpt>
      <trkpt lat="60.481449" lon="22.254212">
        <ele>25</ele>
        <time>1970-01-01T01:00:00Z</time>
      </trkpt>
      <trkpt lat="60.481523" lon="22.254437">
        <ele>25</ele>
        <time>1970-01-01T01:00:00Z</time>
      </trkpt>
      <trkpt lat="60.48152" lon="22.254546">
        <ele>25</ele>
        <time>1970-01-01T01:00:00Z</time>
      </trkpt>
      <trkpt lat="60.481403" lon="22.254741">
        <ele>25</ele>
        <time>1970-01-01T01:00:00Z</time>
      </trkpt>
      <trkpt lat="60.481362" lon="22.254795">
        <ele>25</ele>
        <time>1970-01-01T01:00:00Z</time>
      </trkpt>
      <trkpt lat="60.481183" lon="22.255047">
        <ele>25</ele>
        <time>1970-01-01T01:00:00Z</time>
      </trkpt>
      <trkpt lat="60.481152" lon="22.255081">
        <ele>25</ele>
        <time>1970-01-01T01:00:00Z</time>
      </trkpt>
      <trkpt lat="60.481019" lon="22.255243">
        <ele>25</ele>
        <time>1970-01-01T01:00:00Z</time>
      </trkpt>
      <trkpt lat="60.480879" lon="22.255309">
        <ele>25</ele>
        <time>1970-01-01T01:00:00Z</time>
      </trkpt>
      <trkpt lat="60.480785" lon="22.255421">
        <ele>25</ele>
        <time>1970-01-01T01:00:00Z</time>
      </trkpt>
      <trkpt lat="60.48076" lon="22.255491">
        <ele>25</ele>
        <time>1970-01-01T01:00:00Z</time>
      </trkpt>
      <trkpt lat="60.480754" lon="22.255517">
        <ele>25</ele>
        <time>1970-01-01T01:00:00Z</time>
      </trkpt>
      <trkpt lat="60.480721" lon="22.255693">
        <ele>25</ele>
        <time>1970-01-01T01:00:00Z</time>
      </trkpt>
      <trkpt lat="60.48071" lon="22.255789">
        <ele>25</ele>
        <time>1970-01-01T01:00:00Z</time>
      </trkpt>
      <trkpt lat="60.480749" lon="22.256006">
        <ele>25</ele>
        <time>1970-01-01T01:00:00Z</time>
      </trkpt>
      <trkpt lat="60.480836" lon="22.25619">
        <ele>25</ele>
        <time>1970-01-01T01:00:00Z</time>
      </trkpt>
      <trkpt lat="60.48095" lon="22.256363">
        <ele>25</ele>
        <time>1970-01-01T01:00:00Z</time>
      </trkpt>
      <trkpt lat="60.481035" lon="22.256556">
        <ele>25</ele>
        <time>1970-01-01T01:00:00Z</time>
      </trkpt>
      <trkpt lat="60.481113" lon="22.256705">
        <ele>25</ele>
        <time>1970-01-01T01:00:00Z</time>
      </trkpt>
      <trkpt lat="60.481141" lon="22.256794">
        <ele>25</ele>
        <time>1970-01-01T01:00:00Z</time>
      </trkpt>
      <trkpt lat="60.481173" lon="22.256947">
        <ele>25</ele>
        <time>1970-01-01T01:00:00Z</time>
      </trkpt>
      <trkpt lat="60.481163" lon="22.257211">
        <ele>25</ele>
        <time>1970-01-01T01:00:00Z</time>
      </trkpt>
      <trkpt lat="60.481161" lon="22.257266">
        <ele>24.9091</ele>
        <time>1970-01-01T01:00:00Z</time>
      </trkpt>
      <trkpt lat="60.481177" lon="22.257516">
        <ele>24.8182</ele>
        <time>1970-01-01T01:00:00Z</time>
      </trkpt>
      <trkpt lat="60.481135" lon="22.257726">
        <ele>24.7273</ele>
        <time>1970-01-01T01:00:00Z</time>
      </trkpt>
      <trkpt lat="60.481109" lon="22.257888">
        <ele>24.6364</ele>
        <time>1970-01-01T01:00:00Z</time>
      </trkpt>
      <trkpt lat="60.48107" lon="22.25806">
        <ele>24.5455</ele>
        <time>1970-01-01T01:00:00Z</time>
      </trkpt>
      <trkpt lat="60.481016" lon="22.258435">
        <ele>24.4545</ele>
        <time>1970-01-01T01:00:00Z</time>
      </trkpt>
      <trkpt lat="60.481059" lon="22.258967">
        <ele>24.3636</ele>
        <time>1970-01-01T01:00:00Z</time>
      </trkpt>
      <trkpt lat="60.481109" lon="22.259327">
        <ele>24.2727</ele>
        <time>1970-01-01T01:00:00Z</time>
      </trkpt>
      <trkpt lat="60.48116" lon="22.259605">
        <ele>24.1818</ele>
        <time>1970-01-01T01:00:00Z</time>
      </trkpt>
      <trkpt lat="60.481205" lon="22.259843">
        <ele>24.0909</ele>
        <time>1970-01-01T01:00:00Z</time>
      </trkpt>
      <trkpt lat="60.481231" lon="22.260126">
        <ele>24</ele>
        <time>1970-01-01T01:00:00Z</time>
      </trkpt>
      <trkpt lat="60.481259" lon="22.260369">
        <ele>24</ele>
        <time>1970-01-01T01:00:00Z</time>
      </trkpt>
      <trkpt lat="60.481294" lon="22.260639">
        <ele>24</ele>
        <time>1970-01-01T01:00:00Z</time>
      </trkpt>
      <trkpt lat="60.481349" lon="22.260946">
        <ele>24</ele>
        <time>1970-01-01T01:00:00Z</time>
      </trkpt>
      <trkpt lat="60.481425" lon="22.26133">
        <ele>24</ele>
        <time>1970-01-01T01:00:00Z</time>
      </trkpt>
      <trkpt lat="60.481482" lon="22.261759">
        <ele>24</ele>
        <time>1970-01-01T01:00:00Z</time>
      </trkpt>
      <trkpt lat="60.481526" lon="22.261956">
        <ele>24</ele>
        <time>1970-01-01T01:00:00Z</time>
      </trkpt>
      <trkpt lat="60.481651" lon="22.262343">
        <ele>24</ele>
        <time>1970-01-01T01:00:00Z</time>
      </trkpt>
      <trkpt lat="60.481734" lon="22.262561">
        <ele>24</ele>
        <time>1970-01-01T01:00:00Z</time>
      </trkpt>
      <trkpt lat="60.481747" lon="22.262627">
        <ele>24</ele>
        <time>1970-01-01T01:00:00Z</time>
      </trkpt>
      <trkpt lat="60.481829" lon="22.262863">
        <ele>24</ele>
        <time>1970-01-01T01:00:00Z</time>
      </trkpt>
      <trkpt lat="60.481886" lon="22.262974">
        <ele>24</ele>
        <time>1970-01-01T01:00:00Z</time>
      </trkpt>
      <trkpt lat="60.481976" lon="22.263099">
        <ele>24</ele>
        <time>1970-01-01T01:00:00Z</time>
      </trkpt>
      <trkpt lat="60.4821" lon="22.26327">
        <ele>24</ele>
        <time>1970-01-01T01:00:00Z</time>
      </trkpt>
      <trkpt lat="60.482244" lon="22.263414">
        <ele>24</ele>
        <time>1970-01-01T01:00:00Z</time>
      </trkpt>
      <trkpt lat="60.482411" lon="22.263587">
        <ele>24</ele>
        <time>1970-01-01T01:00:00Z</time>
      </trkpt>
      <trkpt lat="60.482557" lon="22.263668">
        <ele>24</ele>
        <time>1970-01-01T01:00:00Z</time>
      </trkpt>
      <trkpt lat="60.482741" lon="22.263701">
        <ele>24</ele>
        <time>1970-01-01T01:00:00Z</time>
      </trkpt>
      <trkpt lat="60.482898" lon="22.263645">
        <ele>24.3636</ele>
        <time>1970-01-01T01:00:00Z</time>
      </trkpt>
      <trkpt lat="60.482997" lon="22.263472">
        <ele>24.7273</ele>
        <time>1970-01-01T01:00:00Z</time>
      </trkpt>
      <trkpt lat="60.483104" lon="22.263312">
        <ele>25.0909</ele>
        <time>1970-01-01T01:00:00Z</time>
      </trkpt>
      <trkpt lat="60.483222" lon="22.263285">
        <ele>25.4545</ele>
        <time>1970-01-01T01:00:00Z</time>
      </trkpt>
      <trkpt lat="60.483314" lon="22.263259">
        <ele>25.8182</ele>
        <time>1970-01-01T01:00:00Z</time>
      </trkpt>
      <trkpt lat="60.483503" lon="22.263154">
        <ele>26.1818</ele>
        <time>1970-01-01T01:00:00Z</time>
      </trkpt>
      <trkpt lat="60.483644" lon="22.263064">
        <ele>26.5455</ele>
        <time>1970-01-01T01:00:00Z</time>
      </trkpt>
      <trkpt lat="60.483744" lon="22.263005">
        <ele>26.9091</ele>
        <time>1970-01-01T01:00:00Z</time>
      </trkpt>
      <trkpt lat="60.483904" lon="22.262962">
        <ele>27.2727</ele>
        <time>1970-01-01T01:00:00Z</time>
      </trkpt>
      <trkpt lat="60.484036" lon="22.26295">
        <ele>27.6364</ele>
        <time>1970-01-01T01:00:00Z</time>
      </trkpt>
      <trkpt lat="60.484153" lon="22.262888">
        <ele>28</ele>
        <time>1970-01-01T01:00:00Z</time>
      </trkpt>
      <trkpt lat="60.484241" lon="22.262865">
        <ele>28</ele>
        <time>1970-01-01T01:00:00Z</time>
      </trkpt>
      <trkpt lat="60.484336" lon="22.262833">
        <ele>28</ele>
        <time>1970-01-01T01:00:00Z</time>
      </trkpt>
      <trkpt lat="60.484362" lon="22.262827">
        <ele>28</ele>
        <time>1970-01-01T01:00:00Z</time>
      </trkpt>
      <trkpt lat="60.484482" lon="22.262836">
        <ele>28</ele>
        <time>1970-01-01T01:00:00Z</time>
      </trkpt>
      <trkpt lat="60.484704" lon="22.262824">
        <ele>28</ele>
        <time>1970-01-01T01:00:00Z</time>
      </trkpt>
      <trkpt lat="60.484853" lon="22.262827">
        <ele>28</ele>
        <time>1970-01-01T01:00:00Z</time>
      </trkpt>
      <trkpt lat="60.484872" lon="22.262834">
        <ele>28</ele>
        <time>1970-01-01T01:00:00Z</time>
      </trkpt>
      <trkpt lat="60.485029" lon="22.262721">
        <ele>28</ele>
        <time>1970-01-01T01:00:00Z</time>
      </trkpt>
      <trkpt lat="60.485174" lon="22.26259">
        <ele>28</ele>
        <time>1970-01-01T01:00:00Z</time>
      </trkpt>
      <trkpt lat="60.485293" lon="22.262402">
        <ele>28</ele>
        <time>1970-01-01T01:00:00Z</time>
      </trkpt>
      <trkpt lat="60.485387" lon="22.262019">
        <ele>28</ele>
        <time>1970-01-01T01:00:00Z</time>
      </trkpt>
      <trkpt lat="60.485375" lon="22.261708">
        <ele>28</ele>
        <time>1970-01-01T01:00:00Z</time>
      </trkpt>
      <trkpt lat="60.485314" lon="22.261399">
        <ele>28</ele>
        <time>1970-01-01T01:00:00Z</time>
      </trkpt>
      <trkpt lat="60.485256" lon="22.261052">
        <ele>28</ele>
        <time>1970-01-01T01:00:00Z</time>
      </trkpt>
      <trkpt lat="60.485228" lon="22.260814">
        <ele>28</ele>
        <time>1970-01-01T01:00:00Z</time>
      </trkpt>
      <trkpt lat="60.485226" lon="22.260723">
        <ele>28</ele>
        <time>1970-01-01T01:00:00Z</time>
      </trkpt>
      <trkpt lat="60.485204" lon="22.260537">
        <ele>28</ele>
        <time>1970-01-01T01:00:00Z</time>
      </trkpt>
      <trkpt lat="60.485171" lon="22.260388">
        <ele>28</ele>
        <time>1970-01-01T01:00:00Z</time>
      </trkpt>
      <trkpt lat="60.485137" lon="22.260178">
        <ele>28</ele>
        <time>1970-01-01T01:00:00Z</time>
      </trkpt>
      <trkpt lat="60.485109" lon="22.259888">
        <ele>28</ele>
        <time>1970-01-01T01:00:00Z</time>
      </trkpt>
      <trkpt lat="60.485099" lon="22.259651">
        <ele>28.4545</ele>
        <time>1970-01-01T01:00:00Z</time>
      </trkpt>
      <trkpt lat="60.485062" lon="22.25946">
        <ele>28.9091</ele>
        <time>1970-01-01T01:00:00Z</time>
      </trkpt>
      <trkpt lat="60.485037" lon="22.259148">
        <ele>29.3636</ele>
        <time>1970-01-01T01:00:00Z</time>
      </trkpt>
      <trkpt lat="60.485048" lon="22.258871">
        <ele>29.8182</ele>
        <time>1970-01-01T01:00:00Z</time>
      </trkpt>
      <trkpt lat="60.485029" lon="22.258589">
        <ele>30.2727</ele>
        <time>1970-01-01T01:00:00Z</time>
      </trkpt>
      <trkpt lat="60.48498" lon="22.258352">
        <ele>30.7273</ele>
        <time>1970-01-01T01:00:00Z</time>
      </trkpt>
      <trkpt lat="60.484963" lon="22.258108">
        <ele>31.1818</ele>
        <time>1970-01-01T01:00:00Z</time>
      </trkpt>
      <trkpt lat="60.48491" lon="22.257894">
        <ele>31.6364</ele>
        <time>1970-01-01T01:00:00Z</time>
      </trkpt>
      <trkpt lat="60.484869" lon="22.25775">
        <ele>32.0909</ele>
        <time>1970-01-01T01:00:00Z</time>
      </trkpt>
      <trkpt lat="60.484802" lon="22.257481">
        <ele>32.5455</ele>
        <time>1970-01-01T01:00:00Z</time>
      </trkpt>
      <trkpt lat="60.484696" lon="22.256942">
        <ele>33</ele>
        <time>1970-01-01T01:00:00Z</time>
      </trkpt>
      <trkpt lat="60.484562" lon="22.256528">
        <ele>33</ele>
        <time>1970-01-01T01:00:00Z</time>
      </trkpt>
      <trkpt lat="60.484546" lon="22.256456">
        <ele>33</ele>
        <time>1970-01-01T01:00:00Z</time>
      </trkpt>
      <trkpt lat="60.484384" lon="22.255993">
        <ele>33</ele>
        <time>1970-01-01T01:00:00Z</time>
      </trkpt>
      <trkpt lat="60.484251" lon="22.25576">
        <ele>33</ele>
        <time>1970-01-01T01:00:00Z</time>
      </trkpt>
      <trkpt lat="60.483875" lon="22.255129">
        <ele>33</ele>
        <time>1970-01-01T01:00:00Z</time>
      </trkpt>
      <trkpt lat="60.483798" lon="22.254876">
        <ele>33</ele>
        <time>1970-01-01T01:00:00Z</time>
      </trkpt>
      <trkpt lat="60.483771" lon="22.254461">
        <ele>32.2727</ele>
        <time>1970-01-01T01:00:00Z</time>
      </trkpt>
      <trkpt lat="60.483742" lon="22.2543">
        <ele>31.5455</ele>
        <time>1970-01-01T01:00:00Z</time>
      </trkpt>
      <trkpt lat="60.48367" lon="22.254106">
        <ele>30.8182</ele>
        <time>1970-01-01T01:00:00Z</time>
      </trkpt>
      <trkpt lat="60.483537" lon="22.254089">
        <ele>30.0909</ele>
        <time>1970-01-01T01:00:00Z</time>
      </trkpt>
      <trkpt lat="60.483452" lon="22.254152">
        <ele>29.3636</ele>
        <time>1970-01-01T01:00:00Z</time>
      </trkpt>
      <trkpt lat="60.483303" lon="22.254276">
        <ele>28.6364</ele>
        <time>1970-01-01T01:00:00Z</time>
      </trkpt>
      <trkpt lat="60.48324" lon="22.254341">
        <ele>27.9091</ele>
        <time>1970-01-01T01:00:00Z</time>
      </trkpt>
      <trkpt lat="60.483115" lon="22.254463">
        <ele>27.1818</ele>
        <time>1970-01-01T01:00:00Z</time>
      </trkpt>
      <trkpt lat="60.483005" lon="22.254504">
        <ele>26.4545</ele>
        <time>1970-01-01T01:00:00Z</time>
      </trkpt>
      <trkpt lat="60.48287" lon="22.254556">
        <ele>25.7273</ele>
        <time>1970-01-01T01:00:00Z</time>
      </trkpt>
      <trkpt lat="60.482729" lon="22.254595">
        <ele>25</ele>
        <time>1970-01-01T01:00:00Z</time>
      </trkpt>
      <trkpt lat="60.482589" lon="22.254617">
        <ele>25</ele>
        <time>1970-01-01T01:00:00Z</time>
      </trkpt>
      <trkpt lat="60.482451" lon="22.254615">
        <ele>25</ele>
        <time>1970-01-01T01:00:00Z</time>
      </trkpt>
      <trkpt lat="60.482359" lon="22.254645">
        <ele>25</ele>
        <time>1970-01-01T01:00:00Z</time>
      </trkpt>
      <trkpt lat="60.482326" lon="22.254673">
        <ele>25</ele>
        <time>1970-01-01T01:00:00Z</time>
      </trkpt>
      <trkpt lat="60.4822" lon="22.254733">
        <ele>25</ele>
        <time>1970-01-01T01:00:00Z</time>
      </trkpt>
      <trkpt lat="60.482098" lon="22.254779">
        <ele>25</ele>
        <time>1970-01-01T01:00:00Z</time>
      </trkpt>
      <trkpt lat="60.481936" lon="22.254814">
        <ele>25</ele>
        <time>1970-01-01T01:00:00Z</time>
      </trkpt>
      <trkpt lat="60.481799" lon="22.254803">
        <ele>25</ele>
        <time>1970-01-01T01:00:00Z</time>
      </trkpt>
      <trkpt lat="60.481692" lon="22.254714">
        <ele>25</ele>
        <time>1970-01-01T01:00:00Z</time>
      </trkpt>
      <trkpt lat="60.481423" lon="22.254698">
        <ele>25</ele>
        <time>1970-01-01T01:00:00Z</time>
      </trkpt>
      <trkpt lat="60.481013" lon="22.255022">
        <ele>25</ele>
        <time>1970-01-01T01:00:00Z</time>
      </trkpt>
      <trkpt lat="60.480924" lon="22.255102">
        <ele>25</ele>
        <time>1970-01-01T01:00:00Z</time>
      </trkpt>
      <trkpt lat="60.480802" lon="22.255269">
        <ele>25</ele>
        <time>1970-01-01T01:00:00Z</time>
      </trkpt>
      <trkpt lat="60.480757" lon="22.255419">
        <ele>25</ele>
        <time>1970-01-01T01:00:00Z</time>
      </trkpt>
      <trkpt lat="60.48075" lon="22.255569">
        <ele>25</ele>
        <time>1970-01-01T01:00:00Z</time>
      </trkpt>
      <trkpt lat="60.480766" lon="22.255791">
        <ele>25</ele>
        <time>1970-01-01T01:00:00Z</time>
      </trkpt>
      <trkpt lat="60.480773" lon="22.255836">
        <ele>25</ele>
        <time>1970-01-01T01:00:00Z</time>
      </trkpt>
      <trkpt lat="60.480818" lon="22.256043">
        <ele>25</ele>
        <time>1970-01-01T01:00:00Z</time>
      </trkpt>
      <trkpt lat="60.48091" lon="22.256226">
        <ele>25</ele>
        <time>1970-01-01T01:00:00Z</time>
      </trkpt>
      <trkpt lat="60.480993" lon="22.25631">
        <ele>25</ele>
        <time>1970-01-01T01:00:00Z</time>
      </trkpt>
      <trkpt lat="60.48103" lon="22.256353">
        <ele>25</ele>
        <time>1970-01-01T01:00:00Z</time>
      </trkpt>
      <trkpt lat="60.481089" lon="22.256478">
        <ele>25</ele>
        <time>1970-01-01T01:00:00Z</time>
      </trkpt>
      <trkpt lat="60.481139" lon="22.256665">
        <ele>25</ele>
        <time>1970-01-01T01:00:00Z</time>
      </trkpt>
      <trkpt lat="60.481164" lon="22.256732">
        <ele>25</ele>
        <time>1970-01-01T01:00:00Z</time>
      </trkpt>
      <trkpt lat="60.481171" lon="22.256903">
        <ele>25</ele>
        <time>1970-01-01T01:00:00Z</time>
      </trkpt>
      <trkpt lat="60.481194" lon="22.257147">
        <ele>24.9091</ele>
        <time>1970-01-01T01:00:00Z</time>
      </trkpt>
      <trkpt lat="60.481203" lon="22.257411">
        <ele>24.8182</ele>
        <time>1970-01-01T01:00:00Z</time>
      </trkpt>
      <trkpt lat="60.481174" lon="22.25765">
        <ele>24.7273</ele>
        <time>1970-01-01T01:00:00Z</time>
      </trkpt>
      <trkpt lat="60.481126" lon="22.257964">
        <ele>24.6364</ele>
        <time>1970-01-01T01:00:00Z</time>
      </trkpt>
      <trkpt lat="60.48107" lon="22.258315">
        <ele>24.5455</ele>
        <time>1970-01-01T01:00:00Z</time>
      </trkpt>
      <trkpt lat="60.481069" lon="22.258448">
        <ele>24.4545</ele>
        <time>1970-01-01T01:00:00Z</time>
      </trkpt>
      <trkpt lat="60.481132" lon="22.259154">
        <ele>24.3636</ele>
        <time>1970-01-01T01:00:00Z</time>
      </trkpt>
      <trkpt lat="60.48114" lon="22.259372">
        <ele>24.2727</ele>
        <time>1970-01-01T01:00:00Z</time>
      </trkpt>
      <trkpt lat="60.481177" lon="22.259603">
        <ele>24.1818</ele>
        <time>1970-01-01T01:00:00Z</time>
      </trkpt>
      <trkpt lat="60.481245" lon="22.260033">
        <ele>24.0909</ele>
        <time>1970-01-01T01:00:00Z</time>
      </trkpt>
      <trkpt lat="60.481259" lon="22.260177">
        <ele>24</ele>
        <time>1970-01-01T01:00:00Z</time>
      </trkpt>
      <trkpt lat="60.481298" lon="22.260533">
        <ele>24</ele>
        <time>1970-01-01T01:00:00Z</time>
      </trkpt>
      <trkpt lat="60.481336" lon="22.260799">
        <ele>24</ele>
        <time>1970-01-01T01:00:00Z</time>
      </trkpt>
      <trkpt lat="60.481387" lon="22.261142">
        <ele>24</ele>
        <time>1970-01-01T01:00:00Z</time>
      </trkpt>
      <trkpt lat="60.481426" lon="22.261387">
        <ele>24</ele>
        <time>1970-01-01T01:00:00Z</time>
      </trkpt>
      <trkpt lat="60.481494" lon="22.261805">
        <ele>24</ele>
        <time>1970-01-01T01:00:00Z</time>
      </trkpt>
      <trkpt lat="60.481516" lon="22.261907">
        <ele>24</ele>
        <time>1970-01-01T01:00:00Z</time>
      </trkpt>
      <trkpt lat="60.481603" lon="22.262314">
        <ele>24</ele>
        <time>1970-01-01T01:00:00Z</time>
      </trkpt>
    </trkseg>
  </trk>
</gpx>